Time,TemperatureF,DewpointF,PressureIn,WindDirection,WindDirectionDegrees,WindSpeedMPH,WindSpeedGustMPH,Humidity,HourlyPrecipIn,Conditions,Clouds,dailyrainin,SoftwareType,DateUTC
2013-01-04 00:01:00,30.8,26.3,30.15,West,280,4.0,6.0,83,0.00,,---,0.00,VWS V14.00,2013-01-04 05:01:00,
2013-01-04 00:02:00,30.8,26.3,30.15,West,280,2.0,6.0,83,0.00,,---,0.00,VWS V14.00,2013-01-04 05:02:00,
2013-01-04 00:03:00,30.8,26.3,30.15,West,280,3.0,6.0,83,0.00,,---,0.00,VWS V14.00,2013-01-04 05:03:00,
2013-01-04 00:07:00,30.8,26.3,30.15,WNW,286,4.0,8.0,83,0.00,,---,0.00,VWS V14.00,2013-01-04 05:07:00,
2013-01-04 00:08:00,30.8,26.3,30.15,West,281,2.0,8.0,83,0.00,,---,0.00,VWS V14.00,2013-01-04 05:08:00,
2013-01-04 00:10:00,30.8,26.3,30.15,WNW,290,4.0,8.0,83,0.00,,---,0.00,VWS V14.00,2013-01-04 05:10:00,
2013-01-04 00:12:00,30.8,26.3,30.15,WNW,287,4.0,8.0,83,0.00,,---,0.00,VWS V14.00,2013-01-04 05:12:00,
2013-01-04 00:13:00,30.9,26.1,30.15,WNW,289,3.0,9.0,82,0.00,,---,0.00,VWS V14.00,2013-01-04 05:13:00,
2013-01-04 00:16:00,30.8,26.0,30.15,West,265,17.0,17.0,82,0.00,,---,0.00,VWS V14.00,2013-01-04 05:16:00,
2013-01-04 00:18:00,30.8,26.0,30.15,WNW,285,14.0,23.0,82,0.00,,---,0.00,VWS V14.00,2013-01-04 05:18:00,
2013-01-04 00:19:00,30.8,25.7,30.15,West,279,5.0,23.0,81,0.00,,---,0.00,VWS V14.00,2013-01-04 05:19:00,
2013-01-04 00:22:00,30.8,25.7,30.15,WNW,294,11.0,23.0,81,0.00,,---,0.00,VWS V14.00,2013-01-04 05:22:00,
2013-01-04 00:23:00,30.8,25.7,30.15,WNW,298,4.0,23.0,81,0.00,,---,0.00,VWS V14.00,2013-01-04 05:23:00,
2013-01-04 00:24:00,30.8,25.4,30.15,West,272,3.0,23.0,80,0.00,,---,0.00,VWS V14.00,2013-01-04 05:24:00,
2013-01-04 00:25:00,30.8,25.4,30.15,West,266,6.0,23.0,80,0.00,,---,0.00,VWS V14.00,2013-01-04 05:25:00,
2013-01-04 00:28:00,30.8,25.4,30.15,WNW,300,8.0,23.0,80,0.00,,---,0.00,VWS V14.00,2013-01-04 05:28:00,
2013-01-04 00:30:00,30.8,25.4,30.15,NW,309,6.0,14.0,80,0.00,,---,0.00,VWS V14.00,2013-01-04 05:30:00,
2013-01-04 00:31:00,30.8,25.4,30.15,West,275,7.0,14.0,80,0.00,,---,0.00,VWS V14.00,2013-01-04 05:31:00,
2013-01-04 00:33:00,30.8,25.4,30.15,West,271,2.0,17.0,80,0.00,,---,0.00,VWS V14.00,2013-01-04 05:33:00,
2013-01-04 00:35:00,30.8,25.4,30.15,WNW,302,13.0,17.0,80,0.00,,---,0.00,VWS V14.00,2013-01-04 05:35:00,
2013-01-04 00:36:00,30.7,25.3,30.15,WNW,287,5.0,17.0,80,0.00,,---,0.00,VWS V14.00,2013-01-04 05:36:00,
2013-01-04 00:39:00,30.7,25.3,30.16,West,272,5.0,17.0,80,0.00,,---,0.00,VWS V14.00,2013-01-04 05:39:00,
2013-01-04 00:40:00,30.7,25.3,30.16,West,277,7.0,17.0,80,0.00,,---,0.00,VWS V14.00,2013-01-04 05:40:00,
2013-01-04 00:43:00,30.7,25.3,30.16,WNW,284,4.0,17.0,80,0.00,,---,0.00,VWS V14.00,2013-01-04 05:43:00,
2013-01-04 00:44:00,30.6,25.2,30.16,West,281,11.0,18.0,80,0.00,,---,0.00,VWS V14.00,2013-01-04 05:44:00,
2013-01-04 00:45:00,30.6,25.2,30.16,West,260,11.0,18.0,80,0.00,,---,0.00,VWS V14.00,2013-01-04 05:45:00,
2013-01-04 00:46:00,30.5,25.1,30.16,West,265,11.0,18.0,80,0.00,,---,0.00,VWS V14.00,2013-01-04 05:46:00,
2013-01-04 00:48:00,30.5,25.1,30.16,WNW,283,2.0,18.0,80,0.00,,---,0.00,VWS V14.00,2013-01-04 05:48:00,
2013-01-04 00:51:00,30.3,24.9,30.16,WNW,286,11.0,18.0,80,0.00,,---,0.00,VWS V14.00,2013-01-04 05:51:00,
2013-01-04 00:52:00,30.3,24.9,30.16,WNW,291,5.0,18.0,80,0.00,,---,0.00,VWS V14.00,2013-01-04 05:52:00,
2013-01-04 00:54:00,30.3,24.9,30.16,NW,321,10.0,20.0,80,0.00,,---,0.00,VWS V14.00,2013-01-04 05:54:00,
2013-01-04 00:56:00,30.3,24.9,30.16,WNW,300,6.0,20.0,80,0.00,,---,0.00,VWS V14.00,2013-01-04 05:56:00,
2013-01-04 00:58:00,30.3,24.9,30.16,West,263,6.0,20.0,80,0.00,,---,0.00,VWS V14.00,2013-01-04 05:58:00,
2013-01-04 00:59:00,30.3,24.9,30.16,WNW,302,6.0,7.0,80,0.00,,---,0.00,VWS V14.00,2013-01-04 05:59:00,
2013-01-04 01:00:00,30.3,24.9,30.16,WSW,246,10.0,13.0,80,0.00,,---,0.00,VWS V14.00,2013-01-04 06:00:00,
2013-01-04 01:03:00,30.3,24.9,30.16,NW,306,3.0,13.0,80,0.00,,---,0.00,VWS V14.00,2013-01-04 06:03:00,
2013-01-04 01:04:00,30.2,24.8,30.16,West,277,15.0,15.0,80,0.00,,---,0.00,VWS V14.00,2013-01-04 06:04:00,
2013-01-04 01:05:00,30.2,24.8,30.16,West,277,7.0,15.0,80,0.00,,---,0.00,VWS V14.00,2013-01-04 06:05:00,
2013-01-04 01:06:00,30.2,24.8,30.16,WNW,286,6.0,15.0,80,0.00,,---,0.00,VWS V14.00,2013-01-04 06:06:00,
2013-01-04 01:08:00,30.1,24.7,30.16,West,274,11.0,21.0,80,0.00,,---,0.00,VWS V14.00,2013-01-04 06:08:00,
2013-01-04 01:09:00,30.1,24.7,30.15,West,267,3.0,21.0,80,0.00,,---,0.00,VWS V14.00,2013-01-04 06:09:00,
2013-01-04 01:10:00,30.1,24.7,30.15,West,267,4.0,21.0,80,0.00,,---,0.00,VWS V14.00,2013-01-04 06:10:00,
2013-01-04 01:11:00,30.1,24.7,30.16,WNW,286,6.0,21.0,80,0.00,,---,0.00,VWS V14.00,2013-01-04 06:11:00,
2013-01-04 01:13:00,30.1,24.7,30.15,NW,326,6.0,21.0,80,0.00,,---,0.00,VWS V14.00,2013-01-04 06:13:00,
2013-01-04 01:14:00,30.1,24.7,30.16,WNW,302,4.0,21.0,80,0.00,,---,0.00,VWS V14.00,2013-01-04 06:14:00,
2013-01-04 01:16:00,30.1,25.0,30.15,West,281,3.0,21.0,81,0.00,,---,0.00,VWS V14.00,2013-01-04 06:16:00,
2013-01-04 01:18:00,30.1,25.0,30.16,West,266,4.0,21.0,81,0.00,,---,0.00,VWS V14.00,2013-01-04 06:18:00,
2013-01-04 01:19:00,30.2,25.1,30.16,NW,309,5.0,21.0,81,0.00,,---,0.00,VWS V14.00,2013-01-04 06:19:00,
2013-01-04 01:21:00,30.1,25.0,30.16,West,279,6.0,21.0,81,0.00,,---,0.00,VWS V14.00,2013-01-04 06:21:00,
2013-01-04 01:23:00,30.1,25.0,30.15,NW,322,14.0,21.0,81,0.00,,---,0.00,VWS V14.00,2013-01-04 06:23:00,
2013-01-04 01:25:00,30.1,25.0,30.15,West,268,7.0,21.0,81,0.00,,---,0.00,VWS V14.00,2013-01-04 06:25:00,
2013-01-04 01:26:00,30.1,25.0,30.15,NW,305,7.0,21.0,81,0.00,,---,0.00,VWS V14.00,2013-01-04 06:26:00,
2013-01-04 01:27:00,30.1,25.0,30.15,NW,311,4.0,21.0,81,0.00,,---,0.00,VWS V14.00,2013-01-04 06:27:00,
2013-01-04 01:28:00,30.1,25.0,30.15,West,277,2.0,9.0,81,0.00,,---,0.00,VWS V14.00,2013-01-04 06:28:00,
2013-01-04 01:30:00,30.1,25.0,30.15,West,278,4.0,11.0,81,0.00,,---,0.00,VWS V14.00,2013-01-04 06:30:00,
2013-01-04 01:31:00,30.1,25.0,30.15,West,276,4.0,11.0,81,0.00,,---,0.00,VWS V14.00,2013-01-04 06:31:00,
2013-01-04 01:33:00,30.1,25.0,30.15,West,275,6.0,11.0,81,0.00,,---,0.00,VWS V14.00,2013-01-04 06:33:00,
2013-01-04 01:36:00,30.1,25.0,30.14,NW,318,4.0,16.0,81,0.00,,---,0.00,VWS V14.00,2013-01-04 06:36:00,
2013-01-04 01:38:00,30.1,25.0,30.14,WNW,294,5.0,16.0,81,0.00,,---,0.00,VWS V14.00,2013-01-04 06:38:00,
2013-01-04 01:39:00,30.1,25.0,30.14,WNW,296,4.0,16.0,81,0.00,,---,0.00,VWS V14.00,2013-01-04 06:39:00,
2013-01-04 01:40:00,30.1,25.0,30.14,NW,306,7.0,16.0,81,0.00,,---,0.00,VWS V14.00,2013-01-04 06:40:00,
2013-01-04 01:42:00,30.1,25.0,30.14,NW,314,6.0,16.0,81,0.00,,---,0.00,VWS V14.00,2013-01-04 06:42:00,
2013-01-04 01:44:00,30.1,25.0,30.14,West,269,3.0,16.0,81,0.00,,---,0.00,VWS V14.00,2013-01-04 06:44:00,
2013-01-04 01:45:00,30.1,25.0,30.14,NW,322,9.0,16.0,81,0.00,,---,0.00,VWS V14.00,2013-01-04 06:45:00,
2013-01-04 01:47:00,30.1,25.0,30.14,NW,322,9.0,16.0,81,0.00,,---,0.00,VWS V14.00,2013-01-04 06:47:00,
2013-01-04 01:49:00,30.1,25.0,30.14,West,281,3.0,16.0,81,0.00,,---,0.00,VWS V14.00,2013-01-04 06:49:00,
2013-01-04 01:50:00,30.0,24.9,30.14,West,259,4.0,16.0,81,0.00,,---,0.00,VWS V14.00,2013-01-04 06:50:00,
2013-01-04 01:52:00,30.0,24.9,30.14,WNW,302,3.0,16.0,81,0.00,,---,0.00,VWS V14.00,2013-01-04 06:52:00,
2013-01-04 01:54:00,30.0,24.9,30.13,West,275,6.0,16.0,81,0.00,,---,0.00,VWS V14.00,2013-01-04 06:54:00,
2013-01-04 01:55:00,30.0,24.9,30.13,West,267,3.0,16.0,81,0.00,,---,0.00,VWS V14.00,2013-01-04 06:55:00,
2013-01-04 01:58:00,30.0,25.2,30.13,West,275,7.0,16.0,82,0.00,,---,0.00,VWS V14.00,2013-01-04 06:58:00,
2013-01-04 01:59:00,30.0,25.2,30.13,West,269,4.0,7.0,82,0.00,,---,0.00,VWS V14.00,2013-01-04 06:59:00,
2013-01-04 02:00:00,30.0,25.2,30.13,West,269,5.0,11.0,82,0.00,,---,0.00,VWS V14.00,2013-01-04 07:00:00,
2013-01-04 02:01:00,29.9,25.1,30.13,West,272,2.0,11.0,82,0.00,,---,0.00,VWS V14.00,2013-01-04 07:01:00,
2013-01-04 02:03:00,29.9,25.1,30.13,West,274,1.0,11.0,82,0.00,,---,0.00,VWS V14.00,2013-01-04 07:03:00,
2013-01-04 02:06:00,29.9,25.1,30.13,West,276,11.0,13.0,82,0.00,,---,0.00,VWS V14.00,2013-01-04 07:06:00,
2013-01-04 02:07:00,29.9,25.1,30.13,West,273,3.0,13.0,82,0.00,,---,0.00,VWS V14.00,2013-01-04 07:07:00,
2013-01-04 02:08:00,29.9,25.1,30.13,WNW,287,5.0,13.0,82,0.00,,---,0.00,VWS V14.00,2013-01-04 07:08:00,
2013-01-04 02:09:00,29.9,25.1,30.13,West,278,6.0,13.0,82,0.00,,---,0.00,VWS V14.00,2013-01-04 07:09:00,
2013-01-04 02:11:00,29.9,25.1,30.13,West,276,12.0,13.0,82,0.00,,---,0.00,VWS V14.00,2013-01-04 07:11:00,
2013-01-04 02:12:00,29.9,25.1,30.13,West,276,3.0,16.0,82,0.00,,---,0.00,VWS V14.00,2013-01-04 07:12:00,
2013-01-04 02:13:00,29.9,25.1,30.13,West,272,6.0,16.0,82,0.00,,---,0.00,VWS V14.00,2013-01-04 07:13:00,
2013-01-04 02:15:00,29.9,25.1,30.13,West,273,8.0,16.0,82,0.00,,---,0.00,VWS V14.00,2013-01-04 07:15:00,
2013-01-04 02:16:00,29.9,25.1,30.13,WSW,252,6.0,16.0,82,0.00,,---,0.00,VWS V14.00,2013-01-04 07:16:00,
2013-01-04 02:17:00,29.8,25.0,30.13,West,265,10.0,16.0,82,0.00,,---,0.00,VWS V14.00,2013-01-04 07:17:00,
2013-01-04 02:18:00,29.8,25.0,30.13,West,271,6.0,16.0,82,0.00,,---,0.00,VWS V14.00,2013-01-04 07:18:00,
2013-01-04 02:21:00,29.8,25.0,30.13,West,272,5.0,16.0,82,0.00,,---,0.00,VWS V14.00,2013-01-04 07:21:00,
2013-01-04 02:24:00,29.8,25.0,30.13,West,274,5.0,16.0,82,0.00,,---,0.00,VWS V14.00,2013-01-04 07:24:00,
2013-01-04 02:25:00,29.8,25.0,30.13,West,267,11.0,16.0,82,0.00,,---,0.00,VWS V14.00,2013-01-04 07:25:00,
2013-01-04 02:27:00,29.8,25.0,30.13,WNW,283,5.0,16.0,82,0.00,,---,0.00,VWS V14.00,2013-01-04 07:27:00,
2013-01-04 02:28:00,29.9,25.1,30.13,West,272,3.0,16.0,82,0.00,,---,0.00,VWS V14.00,2013-01-04 07:28:00,
2013-01-04 02:30:00,29.8,25.0,30.13,West,277,4.0,16.0,82,0.00,,---,0.00,VWS V14.00,2013-01-04 07:30:00,
2013-01-04 02:31:00,29.8,25.0,30.13,WNW,299,6.0,16.0,82,0.00,,---,0.00,VWS V14.00,2013-01-04 07:31:00,
2013-01-04 02:32:00,29.8,25.0,30.13,West,274,5.0,16.0,82,0.00,,---,0.00,VWS V14.00,2013-01-04 07:32:00,
2013-01-04 02:33:00,29.8,25.0,30.13,West,275,6.0,16.0,82,0.00,,---,0.00,VWS V14.00,2013-01-04 07:33:00,
2013-01-04 02:35:00,29.8,25.0,30.13,WNW,285,5.0,16.0,82,0.00,,---,0.00,VWS V14.00,2013-01-04 07:35:00,
2013-01-04 02:36:00,29.8,25.0,30.13,West,277,6.0,16.0,82,0.00,,---,0.00,VWS V14.00,2013-01-04 07:36:00,
2013-01-04 02:37:00,29.8,25.0,30.13,West,261,9.0,16.0,82,0.00,,---,0.00,VWS V14.00,2013-01-04 07:37:00,
2013-01-04 02:39:00,29.8,24.7,30.14,West,263,6.0,16.0,81,0.00,,---,0.00,VWS V14.00,2013-01-04 07:39:00,
2013-01-04 02:40:00,29.8,24.7,30.14,West,266,9.0,16.0,81,0.00,,---,0.00,VWS V14.00,2013-01-04 07:40:00,
2013-01-04 02:42:00,29.8,24.7,30.14,West,280,4.0,16.0,81,0.00,,---,0.00,VWS V14.00,2013-01-04 07:42:00,
2013-01-04 02:44:00,29.8,24.7,30.14,WNW,290,9.0,18.0,81,0.00,,---,0.00,VWS V14.00,2013-01-04 07:44:00,
2013-01-04 02:45:00,29.8,24.7,30.14,West,269,4.0,18.0,81,0.00,,---,0.00,VWS V14.00,2013-01-04 07:45:00,
2013-01-04 02:46:00,29.7,24.6,30.14,WNW,288,5.0,18.0,81,0.00,,---,0.00,VWS V14.00,2013-01-04 07:46:00,
2013-01-04 02:47:00,29.7,24.6,30.14,WNW,298,3.0,18.0,81,0.00,,---,0.00,VWS V14.00,2013-01-04 07:47:00,
2013-01-04 02:49:00,29.7,24.6,30.14,West,263,4.0,19.0,81,0.00,,---,0.00,VWS V14.00,2013-01-04 07:49:00,
2013-01-04 02:51:00,29.7,24.6,30.13,West,274,5.0,19.0,81,0.00,,---,0.00,VWS V14.00,2013-01-04 07:51:00,
2013-01-04 02:52:00,29.7,24.6,30.13,WNW,284,6.0,19.0,81,0.00,,---,0.00,VWS V14.00,2013-01-04 07:52:00,
2013-01-04 02:54:00,29.7,24.3,30.14,NW,311,7.0,19.0,80,0.00,,---,0.00,VWS V14.00,2013-01-04 07:54:00,
2013-01-04 02:57:00,29.6,24.2,30.14,West,268,3.0,19.0,80,0.00,,---,0.00,VWS V14.00,2013-01-04 07:57:00,
2013-01-04 02:59:00,29.6,24.2,30.14,WNW,301,7.0,10.0,80,0.00,,---,0.00,VWS V14.00,2013-01-04 07:59:00,
2013-01-04 03:00:00,29.6,24.2,30.14,WNW,298,5.0,10.0,80,0.00,,---,0.00,VWS V14.00,2013-01-04 08:00:00,
2013-01-04 03:03:00,29.6,24.2,30.14,West,267,9.0,12.0,80,0.00,,---,0.00,VWS V14.00,2013-01-04 08:03:00,
2013-01-04 03:05:00,29.6,24.2,30.14,WSW,256,8.0,12.0,80,0.00,,---,0.00,VWS V14.00,2013-01-04 08:05:00,
2013-01-04 03:06:00,29.6,24.2,30.14,West,267,2.0,12.0,80,0.00,,---,0.00,VWS V14.00,2013-01-04 08:06:00,
2013-01-04 03:09:00,29.5,23.8,30.14,WNW,289,15.0,20.0,79,0.00,,---,0.00,VWS V14.00,2013-01-04 08:09:00,
2013-01-04 03:10:00,29.5,23.8,30.14,WNW,288,5.0,20.0,79,0.00,,---,0.00,VWS V14.00,2013-01-04 08:10:00,
2013-01-04 03:11:00,29.5,23.8,30.14,WNW,292,6.0,20.0,79,0.00,,---,0.00,VWS V14.00,2013-01-04 08:11:00,
2013-01-04 03:16:00,29.4,23.7,30.14,West,267,15.0,20.0,79,0.00,,---,0.00,VWS V14.00,2013-01-04 08:16:00,
2013-01-04 03:17:00,29.4,23.7,30.14,West,265,13.0,20.0,79,0.00,,---,0.00,VWS V14.00,2013-01-04 08:17:00,
2013-01-04 03:18:00,29.4,23.7,30.14,WNW,283,7.0,20.0,79,0.00,,---,0.00,VWS V14.00,2013-01-04 08:18:00,
2013-01-04 03:19:00,29.4,23.7,30.14,WNW,292,4.0,20.0,79,0.00,,---,0.00,VWS V14.00,2013-01-04 08:19:00,
2013-01-04 03:23:00,29.3,23.6,30.14,WNW,297,14.0,20.0,79,0.00,,---,0.00,VWS V14.00,2013-01-04 08:23:00,
2013-01-04 03:24:00,29.3,23.6,30.14,West,280,12.0,21.0,79,0.00,,---,0.00,VWS V14.00,2013-01-04 08:24:00,
2013-01-04 03:26:00,29.3,23.6,30.14,WSW,244,4.0,21.0,79,0.00,,---,0.00,VWS V14.00,2013-01-04 08:26:00,
2013-01-04 03:29:00,29.2,23.2,30.14,WNW,294,6.0,10.0,78,0.00,,---,0.00,VWS V14.00,2013-01-04 08:29:00,
2013-01-04 03:30:00,29.2,23.2,30.14,WNW,298,7.0,10.0,78,0.00,,---,0.00,VWS V14.00,2013-01-04 08:30:00,
2013-01-04 03:31:00,29.2,23.5,30.14,West,278,12.0,17.0,79,0.00,,---,0.00,VWS V14.00,2013-01-04 08:31:00,
2013-01-04 03:32:00,29.2,23.5,30.14,NW,304,9.0,17.0,79,0.00,,---,0.00,VWS V14.00,2013-01-04 08:32:00,
2013-01-04 03:35:00,29.2,23.5,30.14,NW,304,3.0,17.0,79,0.00,,---,0.00,VWS V14.00,2013-01-04 08:35:00,
2013-01-04 03:37:00,29.2,23.5,30.14,West,280,4.0,21.0,79,0.00,,---,0.00,VWS V14.00,2013-01-04 08:37:00,
2013-01-04 03:38:00,29.2,23.5,30.14,WNW,286,5.0,21.0,79,0.00,,---,0.00,VWS V14.00,2013-01-04 08:38:00,
2013-01-04 03:41:00,29.2,23.5,30.14,WNW,284,10.0,21.0,79,0.00,,---,0.00,VWS V14.00,2013-01-04 08:41:00,
2013-01-04 03:43:00,29.1,23.4,30.14,West,262,5.0,21.0,79,0.00,,---,0.00,VWS V14.00,2013-01-04 08:43:00,
2013-01-04 03:44:00,29.1,23.4,30.14,West,279,4.0,21.0,79,0.00,,---,0.00,VWS V14.00,2013-01-04 08:44:00,
2013-01-04 03:48:00,29.0,23.3,30.14,WNW,288,3.0,21.0,79,0.00,,---,0.00,VWS V14.00,2013-01-04 08:48:00,
2013-01-04 03:49:00,29.0,23.3,30.14,West,271,4.0,21.0,79,0.00,,---,0.00,VWS V14.00,2013-01-04 08:49:00,
2013-01-04 03:53:00,28.9,23.5,30.13,West,267,15.0,21.0,80,0.00,,---,0.00,VWS V14.00,2013-01-04 08:53:00,
2013-01-04 03:54:00,28.8,23.4,30.13,West,274,3.0,21.0,80,0.00,,---,0.00,VWS V14.00,2013-01-04 08:54:00,
2013-01-04 03:55:00,28.8,23.4,30.13,West,281,7.0,21.0,80,0.00,,---,0.00,VWS V14.00,2013-01-04 08:55:00,
2013-01-04 03:57:00,28.8,23.1,30.13,West,280,10.0,21.0,79,0.00,,---,0.00,VWS V14.00,2013-01-04 08:57:00,
2013-01-04 03:58:00,28.8,23.1,30.14,West,280,5.0,21.0,79,0.00,,---,0.00,VWS V14.00,2013-01-04 08:58:00,
2013-01-04 03:59:00,28.8,23.4,30.13,West,279,4.0,7.0,80,0.00,,---,0.00,VWS V14.00,2013-01-04 08:59:00,
2013-01-04 04:00:00,28.8,23.4,30.13,West,267,7.0,7.0,80,0.00,,---,0.00,VWS V14.00,2013-01-04 09:00:00,
2013-01-04 04:02:00,28.8,23.4,30.13,West,273,4.0,8.0,80,0.00,,---,0.00,VWS V14.00,2013-01-04 09:02:00,
2013-01-04 04:06:00,28.6,23.2,30.13,WNW,284,14.0,18.0,80,0.00,,---,0.00,VWS V14.00,2013-01-04 09:06:00,
2013-01-04 04:07:00,28.6,23.2,30.13,West,274,17.0,18.0,80,0.00,,---,0.00,VWS V14.00,2013-01-04 09:07:00,
2013-01-04 04:10:00,28.5,23.1,30.13,WNW,295,10.0,25.0,80,0.00,,---,0.00,VWS V14.00,2013-01-04 09:10:00,
2013-01-04 04:12:00,28.4,23.0,30.13,West,265,14.0,25.0,80,0.00,,---,0.00,VWS V14.00,2013-01-04 09:12:00,
2013-01-04 04:15:00,28.4,23.0,30.13,WNW,285,10.0,25.0,80,0.00,,---,0.00,VWS V14.00,2013-01-04 09:15:00,
2013-01-04 04:18:00,28.3,22.9,30.13,WNW,288,5.0,25.0,80,0.00,,---,0.00,VWS V14.00,2013-01-04 09:18:00,
2013-01-04 04:20:00,28.3,22.9,30.13,West,269,2.0,25.0,80,0.00,,---,0.00,VWS V14.00,2013-01-04 09:20:00,
2013-01-04 04:23:00,28.3,22.9,30.13,West,275,11.0,25.0,80,0.00,,---,0.00,VWS V14.00,2013-01-04 09:23:00,
2013-01-04 04:25:00,28.3,22.9,30.13,West,277,12.0,25.0,80,0.00,,---,0.00,VWS V14.00,2013-01-04 09:25:00,
2013-01-04 04:28:00,28.2,22.8,30.13,West,274,5.0,11.0,80,0.00,,---,0.00,VWS V14.00,2013-01-04 09:28:00,
2013-01-04 04:29:00,28.2,22.8,30.13,WNW,296,4.0,12.0,80,0.00,,---,0.00,VWS V14.00,2013-01-04 09:29:00,
2013-01-04 04:33:00,28.2,22.8,30.13,West,281,13.0,20.0,80,0.00,,---,0.00,VWS V14.00,2013-01-04 09:33:00,
2013-01-04 04:34:00,28.2,22.8,30.13,West,271,3.0,22.0,80,0.00,,---,0.00,VWS V14.00,2013-01-04 09:34:00,
2013-01-04 04:36:00,28.1,22.7,30.13,WNW,299,10.0,22.0,80,0.00,,---,0.00,VWS V14.00,2013-01-04 09:36:00,
2013-01-04 04:39:00,28.2,22.8,30.13,WNW,286,11.0,22.0,80,0.00,,---,0.00,VWS V14.00,2013-01-04 09:39:00,
2013-01-04 04:41:00,28.2,22.8,30.12,WNW,286,14.0,24.0,80,0.00,,---,0.00,VWS V14.00,2013-01-04 09:41:00,
2013-01-04 04:44:00,28.1,22.7,30.12,WNW,288,10.0,24.0,80,0.00,,---,0.00,VWS V14.00,2013-01-04 09:44:00,
2013-01-04 04:46:00,28.1,22.7,30.13,WNW,298,20.0,24.0,80,0.00,,---,0.00,VWS V14.00,2013-01-04 09:46:00,
2013-01-04 04:47:00,28.1,22.7,30.13,WNW,298,7.0,24.0,80,0.00,,---,0.00,VWS V14.00,2013-01-04 09:47:00,
2013-01-04 04:49:00,28.1,22.7,30.12,West,275,4.0,24.0,80,0.00,,---,0.00,VWS V14.00,2013-01-04 09:49:00,
2013-01-04 04:50:00,28.1,22.7,30.12,West,273,4.0,24.0,80,0.00,,---,0.00,VWS V14.00,2013-01-04 09:50:00,
2013-01-04 04:51:00,28.0,22.6,30.12,West,267,3.0,24.0,80,0.00,,---,0.00,VWS V14.00,2013-01-04 09:51:00,
2013-01-04 04:52:00,28.0,22.9,30.13,WNW,287,5.0,24.0,81,0.00,,---,0.00,VWS V14.00,2013-01-04 09:52:00,
2013-01-04 04:56:00,28.0,22.9,30.12,WNW,282,3.0,24.0,81,0.00,,---,0.00,VWS V14.00,2013-01-04 09:56:00,
2013-01-04 04:57:00,28.0,22.9,30.13,West,279,6.0,24.0,81,0.00,,---,0.00,VWS V14.00,2013-01-04 09:57:00,
2013-01-04 04:58:00,28.0,22.9,30.13,SW,232,3.0,24.0,81,0.00,,---,0.00,VWS V14.00,2013-01-04 09:58:00,
2013-01-04 05:01:00,28.0,22.9,30.12,WNW,294,10.0,20.0,81,0.00,,---,0.00,VWS V14.00,2013-01-04 10:01:00,
2013-01-04 05:03:00,27.9,22.8,30.12,WNW,296,10.0,20.0,81,0.00,,---,0.00,VWS V14.00,2013-01-04 10:03:00,
2013-01-04 05:05:00,27.9,22.8,30.12,West,269,4.0,20.0,81,0.00,,---,0.00,VWS V14.00,2013-01-04 10:05:00,
2013-01-04 05:08:00,27.9,22.8,30.12,West,271,5.0,20.0,81,0.00,,---,0.00,VWS V14.00,2013-01-04 10:08:00,
2013-01-04 05:09:00,27.9,22.8,30.12,West,260,15.0,20.0,81,0.00,,---,0.00,VWS V14.00,2013-01-04 10:09:00,
2013-01-04 05:10:00,27.8,22.7,30.12,West,277,5.0,20.0,81,0.00,,---,0.00,VWS V14.00,2013-01-04 10:10:00,
2013-01-04 05:11:00,27.8,22.7,30.12,WNW,286,11.0,20.0,81,0.00,,---,0.00,VWS V14.00,2013-01-04 10:11:00,
2013-01-04 05:14:00,27.8,22.7,30.12,West,263,5.0,20.0,81,0.00,,---,0.00,VWS V14.00,2013-01-04 10:14:00,
2013-01-04 05:15:00,27.7,22.6,30.12,West,273,18.0,20.0,81,0.00,,---,0.00,VWS V14.00,2013-01-04 10:15:00,
2013-01-04 05:16:00,27.7,22.6,30.12,West,271,10.0,20.0,81,0.00,,---,0.00,VWS V14.00,2013-01-04 10:16:00,
2013-01-04 05:17:00,27.6,22.5,30.12,West,263,3.0,20.0,81,0.00,,---,0.00,VWS V14.00,2013-01-04 10:17:00,
2013-01-04 05:20:00,27.6,22.5,30.12,WSW,254,4.0,20.0,81,0.00,,---,0.00,VWS V14.00,2013-01-04 10:20:00,
2013-01-04 05:21:00,27.6,22.5,30.12,NW,309,4.0,20.0,81,0.00,,---,0.00,VWS V14.00,2013-01-04 10:21:00,
2013-01-04 05:22:00,27.6,22.5,30.12,WNW,298,11.0,20.0,81,0.00,,---,0.00,VWS V14.00,2013-01-04 10:22:00,
2013-01-04 05:25:00,27.6,22.5,30.12,West,281,11.0,20.0,81,0.00,,---,0.00,VWS V14.00,2013-01-04 10:25:00,
2013-01-04 05:26:00,27.6,22.5,30.12,West,279,15.0,21.0,81,0.00,,---,0.00,VWS V14.00,2013-01-04 10:26:00,
2013-01-04 05:27:00,27.5,22.5,30.12,WNW,302,6.0,21.0,81,0.00,,---,0.00,VWS V14.00,2013-01-04 10:27:00,
2013-01-04 05:28:00,27.6,22.5,30.12,West,274,2.0,5.0,81,0.00,,---,0.00,VWS V14.00,2013-01-04 10:28:00,
2013-01-04 05:31:00,27.5,22.7,30.12,WNW,289,10.0,12.0,82,0.00,,---,0.00,VWS V14.00,2013-01-04 10:31:00,
2013-01-04 05:33:00,27.5,22.7,30.12,West,271,2.0,17.0,82,0.00,,---,0.00,VWS V14.00,2013-01-04 10:33:00,
2013-01-04 05:34:00,27.5,22.7,30.12,West,271,2.0,17.0,82,0.00,,---,0.00,VWS V14.00,2013-01-04 10:34:00,
2013-01-04 05:36:00,27.5,22.7,30.12,WNW,301,11.0,19.0,82,0.00,,---,0.00,VWS V14.00,2013-01-04 10:36:00,
2013-01-04 05:38:00,27.5,22.7,30.12,West,276,7.0,19.0,82,0.00,,---,0.00,VWS V14.00,2013-01-04 10:38:00,
2013-01-04 05:39:00,27.4,22.6,30.12,WSW,252,3.0,19.0,82,0.00,,---,0.00,VWS V14.00,2013-01-04 10:39:00,
2013-01-04 05:40:00,27.4,22.6,30.12,NW,317,9.0,19.0,82,0.00,,---,0.00,VWS V14.00,2013-01-04 10:40:00,
2013-01-04 05:42:00,27.4,22.6,30.11,NW,312,13.0,20.0,82,0.00,,---,0.00,VWS V14.00,2013-01-04 10:42:00,
2013-01-04 05:44:00,27.4,22.6,30.11,West,272,11.0,20.0,82,0.00,,---,0.00,VWS V14.00,2013-01-04 10:44:00,
2013-01-04 05:45:00,27.4,22.6,30.11,West,273,6.0,20.0,82,0.00,,---,0.00,VWS V14.00,2013-01-04 10:45:00,
2013-01-04 05:48:00,27.3,22.5,30.11,WSW,255,6.0,22.0,82,0.00,,---,0.00,VWS V14.00,2013-01-04 10:48:00,
2013-01-04 05:49:00,27.3,22.5,30.11,West,268,14.0,22.0,82,0.00,,---,0.00,VWS V14.00,2013-01-04 10:49:00,
2013-01-04 05:51:00,27.3,22.5,30.11,West,273,4.0,22.0,82,0.00,,---,0.00,VWS V14.00,2013-01-04 10:51:00,
2013-01-04 05:52:00,27.3,22.5,30.11,West,277,11.0,22.0,82,0.00,,---,0.00,VWS V14.00,2013-01-04 10:52:00,
2013-01-04 05:54:00,27.3,22.5,30.11,WSW,253,10.0,22.0,82,0.00,,---,0.00,VWS V14.00,2013-01-04 10:54:00,
2013-01-04 05:56:00,27.2,22.4,30.11,West,262,6.0,22.0,82,0.00,,---,0.00,VWS V14.00,2013-01-04 10:56:00,
2013-01-04 05:57:00,27.2,22.4,30.11,West,267,12.0,22.0,82,0.00,,---,0.00,VWS V14.00,2013-01-04 10:57:00,
2013-01-04 05:58:00,27.2,22.4,30.11,West,265,17.0,22.0,82,0.00,,---,0.00,VWS V14.00,2013-01-04 10:58:00,
2013-01-04 06:00:00,27.2,22.4,30.11,West,275,6.0,14.0,82,0.00,,---,0.00,VWS V14.00,2013-01-04 11:00:00,
2013-01-04 06:02:00,27.2,22.4,30.11,West,277,2.0,14.0,82,0.00,,---,0.00,VWS V14.00,2013-01-04 11:02:00,
2013-01-04 06:05:00,27.2,22.4,30.11,West,269,7.0,14.0,82,0.00,,---,0.00,VWS V14.00,2013-01-04 11:05:00,
2013-01-04 06:07:00,27.2,22.4,30.11,WNW,283,12.0,17.0,82,0.00,,---,0.00,VWS V14.00,2013-01-04 11:07:00,
2013-01-04 06:12:00,27.2,22.4,30.11,West,259,4.0,17.0,82,0.00,,---,0.00,VWS V14.00,2013-01-04 11:12:00,
2013-01-04 06:14:00,27.2,22.4,30.11,West,266,4.0,17.0,82,0.00,,---,0.00,VWS V14.00,2013-01-04 11:14:00,
2013-01-04 06:15:00,27.2,22.4,30.11,West,281,17.0,22.0,82,0.00,,---,0.00,VWS V14.00,2013-01-04 11:15:00,
2013-01-04 06:17:00,27.1,22.4,30.11,WNW,298,15.0,24.0,82,0.00,,---,0.00,VWS V14.00,2013-01-04 11:17:00,
2013-01-04 06:18:00,27.1,22.4,30.11,West,272,6.0,24.0,82,0.00,,---,0.00,VWS V14.00,2013-01-04 11:18:00,
2013-01-04 06:19:00,27.1,22.4,30.11,West,267,4.0,24.0,82,0.00,,---,0.00,VWS V14.00,2013-01-04 11:19:00,
2013-01-04 06:20:00,27.1,22.4,30.11,West,268,17.0,24.0,82,0.00,,---,0.00,VWS V14.00,2013-01-04 11:20:00,
2013-01-04 06:24:00,27.1,22.1,30.11,West,273,11.0,24.0,81,0.00,,---,0.00,VWS V14.00,2013-01-04 11:24:00,
2013-01-04 06:25:00,27.1,22.1,30.11,West,267,18.0,24.0,81,0.00,,---,0.00,VWS V14.00,2013-01-04 11:25:00,
2013-01-04 06:27:00,27.0,22.0,30.11,WNW,291,13.0,24.0,81,0.00,,---,0.00,VWS V14.00,2013-01-04 11:27:00,
2013-01-04 06:30:00,27.0,22.0,30.11,West,272,11.0,19.0,81,0.00,,---,0.00,VWS V14.00,2013-01-04 11:30:00,
2013-01-04 06:31:00,27.0,22.0,30.11,NW,306,7.0,19.0,81,0.00,,---,0.00,VWS V14.00,2013-01-04 11:31:00,
2013-01-04 06:33:00,27.0,22.0,30.11,West,272,10.0,19.0,81,0.00,,---,0.00,VWS V14.00,2013-01-04 11:33:00,
2013-01-04 06:35:00,26.9,21.9,30.11,West,279,13.0,19.0,81,0.00,,---,0.00,VWS V14.00,2013-01-04 11:35:00,
2013-01-04 06:36:00,26.9,21.9,30.11,WNW,288,7.0,19.0,81,0.00,,---,0.00,VWS V14.00,2013-01-04 11:36:00,
2013-01-04 06:37:00,26.9,21.9,30.11,WNW,290,19.0,19.0,81,0.00,,---,0.00,VWS V14.00,2013-01-04 11:37:00,
2013-01-04 06:38:00,26.9,21.9,30.11,WNW,296,16.0,19.0,81,0.00,,---,0.00,VWS V14.00,2013-01-04 11:38:00,
2013-01-04 06:41:00,26.8,21.8,30.11,WSW,248,9.0,19.0,81,0.00,,---,0.00,VWS V14.00,2013-01-04 11:41:00,
2013-01-04 06:43:00,26.8,21.8,30.11,West,272,6.0,19.0,81,0.00,,---,0.00,VWS V14.00,2013-01-04 11:43:00,
2013-01-04 06:44:00,26.8,21.8,30.11,West,259,4.0,19.0,81,0.00,,---,0.00,VWS V14.00,2013-01-04 11:44:00,
2013-01-04 06:47:00,26.6,21.6,30.11,West,273,6.0,19.0,81,0.00,,---,0.00,VWS V14.00,2013-01-04 11:47:00,
2013-01-04 06:48:00,26.5,21.5,30.12,WSW,254,2.0,19.0,81,0.00,,---,0.00,VWS V14.00,2013-01-04 11:48:00,
2013-01-04 06:49:00,26.5,21.5,30.12,WSW,244,1.0,19.0,81,0.00,,---,0.00,VWS V14.00,2013-01-04 11:49:00,
2013-01-04 06:52:00,26.1,21.1,30.12,SW,232,2.0,19.0,81,0.00,,---,0.00,VWS V14.00,2013-01-04 11:52:00,
2013-01-04 06:54:00,26.0,21.3,30.11,WSW,238,3.0,19.0,82,0.00,,---,0.00,VWS V14.00,2013-01-04 11:54:00,
2013-01-04 06:55:00,25.9,21.2,30.11,WSW,244,5.0,19.0,82,0.00,,---,0.00,VWS V14.00,2013-01-04 11:55:00,
2013-01-04 06:56:00,25.7,21.0,30.12,WSW,245,8.0,19.0,82,0.00,,---,0.00,VWS V14.00,2013-01-04 11:56:00,
2013-01-04 06:58:00,25.5,20.8,30.12,West,259,2.0,19.0,82,0.00,,---,0.00,VWS V14.00,2013-01-04 11:58:00,
2013-01-04 07:01:00,25.3,20.9,30.12,WSW,254,4.0,11.0,83,0.00,,---,0.00,VWS V14.00,2013-01-04 12:01:00,
2013-01-04 07:03:00,25.2,20.8,30.12,West,265,6.0,11.0,83,0.00,,---,0.00,VWS V14.00,2013-01-04 12:03:00,
2013-01-04 07:06:00,25.0,20.6,30.12,West,266,0.0,11.0,83,0.00,,---,0.00,VWS V14.00,2013-01-04 12:06:00,
2013-01-04 07:08:00,24.9,20.5,30.12,West,273,5.0,11.0,83,0.00,,---,0.00,VWS V14.00,2013-01-04 12:08:00,
2013-01-04 07:10:00,24.9,20.5,30.12,West,281,8.0,11.0,83,0.00,,---,0.00,VWS V14.00,2013-01-04 12:10:00,
2013-01-04 07:12:00,24.9,20.8,30.12,WSW,247,2.0,11.0,84,0.00,,---,0.00,VWS V14.00,2013-01-04 12:12:00,
2013-01-04 07:13:00,24.8,20.7,30.12,WSW,248,3.0,11.0,84,0.00,,---,0.00,VWS V14.00,2013-01-04 12:13:00,
2013-01-04 07:14:00,24.8,20.7,30.12,West,269,4.0,11.0,84,0.00,,---,0.00,VWS V14.00,2013-01-04 12:14:00,
2013-01-04 07:15:00,24.8,20.7,30.12,West,275,4.0,11.0,84,0.00,,---,0.00,VWS V14.00,2013-01-04 12:15:00,
2013-01-04 07:18:00,24.8,20.7,30.12,West,265,2.0,11.0,84,0.00,,---,0.00,VWS V14.00,2013-01-04 12:18:00,
2013-01-04 07:19:00,24.8,20.7,30.12,West,265,5.0,11.0,84,0.00,,---,0.00,VWS V14.00,2013-01-04 12:19:00,
2013-01-04 07:21:00,24.7,20.6,30.12,WSW,237,9.0,13.0,84,0.00,,---,0.00,VWS V14.00,2013-01-04 12:21:00,
2013-01-04 07:24:00,24.5,20.4,30.12,West,259,2.0,13.0,84,0.00,,---,0.00,VWS V14.00,2013-01-04 12:24:00,
2013-01-04 07:25:00,24.5,20.4,30.12,West,269,5.0,17.0,84,0.00,,---,0.00,VWS V14.00,2013-01-04 12:25:00,
2013-01-04 07:26:00,24.5,20.4,30.12,WSW,254,3.0,17.0,84,0.00,,---,0.00,VWS V14.00,2013-01-04 12:26:00,
2013-01-04 07:30:00,24.3,20.2,30.13,West,270,9.0,12.0,84,0.00,,---,0.00,VWS V14.00,2013-01-04 12:30:00,
2013-01-04 07:31:00,24.3,20.2,30.13,West,263,6.0,12.0,84,0.00,,---,0.00,VWS V14.00,2013-01-04 12:31:00,
2013-01-04 07:32:00,24.2,20.1,30.13,West,278,6.0,12.0,84,0.00,,---,0.00,VWS V14.00,2013-01-04 12:32:00,
2013-01-04 07:33:00,24.2,20.1,30.13,West,280,4.0,12.0,84,0.00,,---,0.00,VWS V14.00,2013-01-04 12:33:00,
2013-01-04 07:35:00,24.1,20.0,30.12,West,268,5.0,12.0,84,0.00,,---,0.00,VWS V14.00,2013-01-04 12:35:00,
2013-01-04 07:38:00,23.9,19.8,30.13,West,281,9.0,15.0,84,0.00,,---,0.00,VWS V14.00,2013-01-04 12:38:00,
2013-01-04 07:40:00,23.9,19.8,30.13,WSW,254,9.0,15.0,84,0.00,,---,0.00,VWS V14.00,2013-01-04 12:40:00,
2013-01-04 07:41:00,23.7,19.6,30.13,WSW,249,2.0,15.0,84,0.00,,---,0.00,VWS V14.00,2013-01-04 12:41:00,
2013-01-04 07:43:00,23.6,19.5,30.13,WSW,254,7.0,15.0,84,0.00,,---,0.00,VWS V14.00,2013-01-04 12:43:00,
2013-01-04 07:45:00,23.5,19.4,30.12,WSW,256,3.0,15.0,84,0.00,,---,0.00,VWS V14.00,2013-01-04 12:45:00,
2013-01-04 07:47:00,23.4,19.3,30.12,WSW,255,4.0,15.0,84,0.00,,---,0.00,VWS V14.00,2013-01-04 12:47:00,
2013-01-04 07:49:00,23.3,19.2,30.12,WSW,254,10.0,15.0,84,0.00,,---,0.00,VWS V14.00,2013-01-04 12:49:00,
2013-01-04 07:51:00,23.3,19.2,30.12,West,270,8.0,15.0,84,0.00,,---,0.00,VWS V14.00,2013-01-04 12:51:00,
2013-01-04 07:53:00,23.2,19.1,30.12,West,271,5.0,15.0,84,0.00,,---,0.00,VWS V14.00,2013-01-04 12:53:00,
2013-01-04 07:54:00,23.2,19.1,30.12,West,263,12.0,16.0,84,0.00,,---,0.00,VWS V14.00,2013-01-04 12:54:00,
2013-01-04 07:55:00,23.2,19.1,30.12,WSW,254,11.0,16.0,84,0.00,,---,0.00,VWS V14.00,2013-01-04 12:55:00,
2013-01-04 07:56:00,23.1,19.0,30.12,West,280,3.0,16.0,84,0.00,,---,0.00,VWS V14.00,2013-01-04 12:56:00,
2013-01-04 07:58:00,23.1,19.0,30.12,West,269,4.0,16.0,84,0.00,,---,0.00,VWS V14.00,2013-01-04 12:58:00,
2013-01-04 07:59:00,23.0,18.9,30.12,West,275,7.0,14.0,84,0.00,,---,0.00,VWS V14.00,2013-01-04 12:59:00,
2013-01-04 08:00:00,23.0,19.2,30.12,West,272,9.0,14.0,85,0.00,,---,0.00,VWS V14.00,2013-01-04 13:00:00,
2013-01-04 08:02:00,23.0,19.2,30.13,WSW,250,7.0,14.0,85,0.00,,---,0.00,VWS V14.00,2013-01-04 13:02:00,
2013-01-04 08:03:00,23.0,19.2,30.12,West,262,4.0,14.0,85,0.00,,---,0.00,VWS V14.00,2013-01-04 13:03:00,
2013-01-04 08:05:00,23.0,19.2,30.12,West,268,2.0,14.0,85,0.00,,---,0.00,VWS V14.00,2013-01-04 13:05:00,
2013-01-04 08:07:00,23.0,19.2,30.12,West,268,10.0,14.0,85,0.00,,---,0.00,VWS V14.00,2013-01-04 13:07:00,
2013-01-04 08:10:00,23.0,19.2,30.12,West,263,4.0,14.0,85,0.00,,---,0.00,VWS V14.00,2013-01-04 13:10:00,
2013-01-04 08:11:00,23.0,19.2,30.12,West,263,4.0,14.0,85,0.00,,---,0.00,VWS V14.00,2013-01-04 13:11:00,
2013-01-04 08:12:00,23.0,19.2,30.12,West,271,3.0,14.0,85,0.00,,---,0.00,VWS V14.00,2013-01-04 13:12:00,
2013-01-04 08:16:00,23.1,19.3,30.12,WSW,256,3.0,18.0,85,0.00,,---,0.00,VWS V14.00,2013-01-04 13:16:00,
2013-01-04 08:17:00,23.1,19.3,30.12,West,268,2.0,18.0,85,0.00,,---,0.00,VWS V14.00,2013-01-04 13:17:00,
2013-01-04 08:20:00,23.1,19.3,30.13,West,263,14.0,18.0,85,0.00,,---,0.00,VWS V14.00,2013-01-04 13:20:00,
2013-01-04 08:22:00,23.1,19.3,30.13,West,267,9.0,19.0,85,0.00,,---,0.00,VWS V14.00,2013-01-04 13:22:00,
2013-01-04 08:24:00,23.2,19.1,30.13,WSW,242,11.0,19.0,84,0.00,,---,0.00,VWS V14.00,2013-01-04 13:24:00,
2013-01-04 08:26:00,23.2,19.1,30.13,West,275,2.0,19.0,84,0.00,,---,0.00,VWS V14.00,2013-01-04 13:26:00,
2013-01-04 08:27:00,23.3,19.2,30.13,West,271,7.0,19.0,84,0.00,,---,0.00,VWS V14.00,2013-01-04 13:27:00,
2013-01-04 08:30:00,23.3,19.2,30.12,WNW,288,10.0,16.0,84,0.00,,---,0.00,VWS V14.00,2013-01-04 13:30:00,
2013-01-04 08:31:00,23.3,19.2,30.13,WSW,254,4.0,16.0,84,0.00,,---,0.00,VWS V14.00,2013-01-04 13:31:00,
2013-01-04 08:33:00,23.3,19.2,30.12,WSW,257,7.0,16.0,84,0.00,,---,0.00,VWS V14.00,2013-01-04 13:33:00,
2013-01-04 08:34:00,23.3,19.2,30.12,West,263,5.0,16.0,84,0.00,,---,0.00,VWS V14.00,2013-01-04 13:34:00,
2013-01-04 08:36:00,23.3,19.2,30.13,West,265,2.0,16.0,84,0.00,,---,0.00,VWS V14.00,2013-01-04 13:36:00,
2013-01-04 08:37:00,23.3,19.2,30.13,West,281,1.0,16.0,84,0.00,,---,0.00,VWS V14.00,2013-01-04 13:37:00,
2013-01-04 08:38:00,23.3,19.2,30.13,West,281,4.0,16.0,84,0.00,,---,0.00,VWS V14.00,2013-01-04 13:38:00,
2013-01-04 08:39:00,23.3,19.2,30.13,WNW,286,3.0,16.0,84,0.00,,---,0.00,VWS V14.00,2013-01-04 13:39:00,
2013-01-04 08:42:00,23.3,19.2,30.13,WNW,290,10.0,16.0,84,0.00,,---,0.00,VWS V14.00,2013-01-04 13:42:00,
2013-01-04 08:43:00,23.3,19.2,30.14,WNW,283,10.0,16.0,84,0.00,,---,0.00,VWS V14.00,2013-01-04 13:43:00,
2013-01-04 08:44:00,23.4,19.3,30.14,West,279,11.0,16.0,84,0.00,,---,0.00,VWS V14.00,2013-01-04 13:44:00,
2013-01-04 08:45:00,23.4,19.3,30.13,West,268,5.0,18.0,84,0.00,,---,0.00,VWS V14.00,2013-01-04 13:45:00,
2013-01-04 08:49:00,23.5,19.4,30.14,West,273,9.0,18.0,84,0.00,,---,0.00,VWS V14.00,2013-01-04 13:49:00,
2013-01-04 08:50:00,23.4,19.3,30.14,West,278,6.0,18.0,84,0.00,,---,0.00,VWS V14.00,2013-01-04 13:50:00,
2013-01-04 08:51:00,23.5,19.4,30.14,WNW,298,10.0,18.0,84,0.00,,---,0.00,VWS V14.00,2013-01-04 13:51:00,
2013-01-04 08:56:00,23.6,19.5,30.14,West,271,16.0,18.0,84,0.00,,---,0.00,VWS V14.00,2013-01-04 13:56:00,
2013-01-04 08:58:00,23.6,19.5,30.14,NW,306,11.0,18.0,84,0.00,,---,0.00,VWS V14.00,2013-01-04 13:58:00,
2013-01-04 09:02:00,23.7,19.6,30.14,NW,309,6.0,12.0,84,0.00,,---,0.00,VWS V14.00,2013-01-04 14:02:00,
2013-01-04 09:03:00,23.7,19.6,30.15,WNW,284,0.0,12.0,84,0.00,,---,0.00,VWS V14.00,2013-01-04 14:03:00,
2013-01-04 09:04:00,23.8,19.7,30.15,West,267,4.0,12.0,84,0.00,,---,0.00,VWS V14.00,2013-01-04 14:04:00,
2013-01-04 09:07:00,23.8,19.7,30.15,West,265,0.0,12.0,84,0.00,,---,0.00,VWS V14.00,2013-01-04 14:07:00,
2013-01-04 09:08:00,23.8,19.7,30.14,West,262,9.0,12.0,84,0.00,,---,0.00,VWS V14.00,2013-01-04 14:08:00,
2013-01-04 09:10:00,23.8,19.7,30.14,West,259,5.0,12.0,84,0.00,,---,0.00,VWS V14.00,2013-01-04 14:10:00,
2013-01-04 09:12:00,23.9,19.8,30.14,West,276,4.0,16.0,84,0.00,,---,0.00,VWS V14.00,2013-01-04 14:12:00,
2013-01-04 09:13:00,23.9,19.8,30.14,WNW,291,14.0,16.0,84,0.00,,---,0.00,VWS V14.00,2013-01-04 14:13:00,
2013-01-04 09:14:00,23.9,19.8,30.14,WNW,295,6.0,16.0,84,0.00,,---,0.00,VWS V14.00,2013-01-04 14:14:00,
2013-01-04 09:17:00,24.0,19.9,30.14,WNW,287,5.0,16.0,84,0.00,,---,0.00,VWS V14.00,2013-01-04 14:17:00,
2013-01-04 09:19:00,24.0,19.9,30.14,WSW,251,2.0,16.0,84,0.00,,---,0.00,VWS V14.00,2013-01-04 14:19:00,
2013-01-04 09:20:00,24.1,20.0,30.14,West,273,11.0,16.0,84,0.00,,---,0.00,VWS V14.00,2013-01-04 14:20:00,
2013-01-04 09:23:00,24.2,20.1,30.14,WNW,284,11.0,16.0,84,0.00,,---,0.00,VWS V14.00,2013-01-04 14:23:00,
2013-01-04 09:25:00,24.3,20.2,30.14,West,278,3.0,17.0,84,0.00,,---,0.00,VWS V14.00,2013-01-04 14:25:00,
2013-01-04 09:27:00,24.3,20.2,30.14,West,259,4.0,17.0,84,0.00,,---,0.00,VWS V14.00,2013-01-04 14:27:00,
2013-01-04 09:28:00,24.4,20.3,30.15,WNW,288,5.0,17.0,84,0.00,,---,0.00,VWS V14.00,2013-01-04 14:28:00,
2013-01-04 09:29:00,24.4,20.3,30.15,West,276,3.0,4.0,84,0.00,,---,0.00,VWS V14.00,2013-01-04 14:29:00,
2013-01-04 09:32:00,24.6,20.5,30.15,WNW,302,4.0,6.0,84,0.00,,---,0.00,VWS V14.00,2013-01-04 14:32:00,
2013-01-04 09:33:00,24.6,20.5,30.15,West,273,5.0,6.0,84,0.00,,---,0.00,VWS V14.00,2013-01-04 14:33:00,
2013-01-04 09:34:00,24.7,20.8,30.15,West,268,4.0,9.0,85,0.00,,---,0.00,VWS V14.00,2013-01-04 14:34:00,
2013-01-04 09:38:00,24.9,20.8,30.15,West,275,4.0,17.0,84,0.00,,---,0.00,VWS V14.00,2013-01-04 14:38:00,
2013-01-04 09:39:00,25.0,20.9,30.15,WNW,290,16.0,17.0,84,0.00,,---,0.00,VWS V14.00,2013-01-04 14:39:00,
2013-01-04 09:42:00,25.1,21.0,30.14,WNW,286,9.0,17.0,84,0.00,,---,0.00,VWS V14.00,2013-01-04 14:42:00,
2013-01-04 09:44:00,25.2,21.0,30.15,West,275,3.0,17.0,84,0.00,,---,0.00,VWS V14.00,2013-01-04 14:44:00,
2013-01-04 09:45:00,25.2,21.0,30.15,NW,309,3.0,17.0,84,0.00,,---,0.00,VWS V14.00,2013-01-04 14:45:00,
2013-01-04 09:46:00,25.3,21.1,30.15,WNW,290,2.0,17.0,84,0.00,,---,0.00,VWS V14.00,2013-01-04 14:46:00,
2013-01-04 09:47:00,25.3,21.1,30.15,WNW,286,4.0,17.0,84,0.00,,---,0.00,VWS V14.00,2013-01-04 14:47:00,
2013-01-04 09:50:00,25.5,21.4,30.15,West,259,18.0,18.0,84,0.00,,---,0.00,VWS V14.00,2013-01-04 14:50:00,
2013-01-04 09:51:00,25.6,21.5,30.15,WNW,288,5.0,20.0,84,0.00,,---,0.00,VWS V14.00,2013-01-04 14:51:00,
2013-01-04 09:52:00,25.6,21.5,30.15,West,269,4.0,20.0,84,0.00,,---,0.00,VWS V14.00,2013-01-04 14:52:00,
2013-01-04 09:55:00,25.8,21.6,30.15,West,279,5.0,20.0,84,0.00,,---,0.00,VWS V14.00,2013-01-04 14:55:00,
2013-01-04 09:56:00,25.8,21.6,30.14,West,278,5.0,20.0,84,0.00,,---,0.00,VWS V14.00,2013-01-04 14:56:00,
2013-01-04 09:57:00,25.8,21.6,30.14,West,274,5.0,20.0,84,0.00,,---,0.00,VWS V14.00,2013-01-04 14:57:00,
2013-01-04 10:01:00,25.9,21.7,30.14,West,263,10.0,17.0,84,0.00,,---,0.00,VWS V14.00,2013-01-04 15:01:00,
2013-01-04 10:02:00,25.9,21.7,30.14,West,264,9.0,17.0,84,0.00,,---,0.00,VWS V14.00,2013-01-04 15:02:00,
2013-01-04 10:04:00,26.0,21.8,30.14,West,265,8.0,17.0,84,0.00,,---,0.00,VWS V14.00,2013-01-04 15:04:00,
2013-01-04 10:09:00,26.2,22.0,30.14,West,276,11.0,17.0,84,0.00,,---,0.00,VWS V14.00,2013-01-04 15:09:00,
2013-01-04 10:10:00,26.2,22.0,30.14,WNW,282,12.0,17.0,84,0.00,,---,0.00,VWS V14.00,2013-01-04 15:10:00,
2013-01-04 10:15:00,26.3,21.9,30.13,West,268,4.0,17.0,83,0.00,,---,0.00,VWS V14.00,2013-01-04 15:15:00,
2013-01-04 10:16:00,26.4,22.0,30.14,West,264,2.0,17.0,83,0.00,,---,0.00,VWS V14.00,2013-01-04 15:16:00,
2013-01-04 10:19:00,26.5,22.0,30.14,West,263,5.0,17.0,83,0.00,,---,0.00,VWS V14.00,2013-01-04 15:19:00,
2013-01-04 10:20:00,26.5,22.0,30.13,WSW,240,5.0,17.0,83,0.00,,---,0.00,VWS V14.00,2013-01-04 15:20:00,
2013-01-04 10:23:00,26.5,22.0,30.13,West,264,5.0,17.0,83,0.00,,---,0.00,VWS V14.00,2013-01-04 15:23:00,
2013-01-04 10:25:00,26.2,21.8,30.13,West,264,10.0,17.0,83,0.00,,---,0.00,VWS V14.00,2013-01-04 15:25:00,
2013-01-04 10:26:00,26.3,21.9,30.13,West,277,6.0,17.0,83,0.00,,---,0.00,VWS V14.00,2013-01-04 15:26:00,
2013-01-04 10:27:00,26.2,21.8,30.13,West,265,2.0,17.0,83,0.00,,---,0.00,VWS V14.00,2013-01-04 15:27:00,
2013-01-04 10:31:00,26.0,21.3,30.13,West,259,3.0,4.0,82,0.00,,---,0.00,VWS V14.00,2013-01-04 15:31:00,
2013-01-04 10:32:00,26.0,21.3,30.13,West,261,3.0,7.0,82,0.00,,---,0.00,VWS V14.00,2013-01-04 15:32:00,
2013-01-04 10:33:00,25.9,21.2,30.13,SW,233,2.0,7.0,82,0.00,,---,0.00,VWS V14.00,2013-01-04 15:33:00,
2013-01-04 10:36:00,25.8,21.1,30.13,WSW,252,5.0,11.0,82,0.00,,---,0.00,VWS V14.00,2013-01-04 15:36:00,
2013-01-04 10:37:00,25.8,21.1,30.13,WNW,284,2.0,11.0,82,0.00,,---,0.00,VWS V14.00,2013-01-04 15:37:00,
2013-01-04 10:38:00,25.7,21.0,30.14,SW,230,0.0,11.0,82,0.00,,---,0.00,VWS V14.00,2013-01-04 15:38:00,
2013-01-04 10:39:00,25.7,21.0,30.14,SW,234,5.0,11.0,82,0.00,,---,0.00,VWS V14.00,2013-01-04 15:39:00,
2013-01-04 10:42:00,25.6,20.9,30.14,West,273,6.0,11.0,82,0.00,,---,0.00,VWS V14.00,2013-01-04 15:42:00,
2013-01-04 10:43:00,25.5,20.8,30.13,WSW,244,11.0,11.0,82,0.00,,---,0.00,VWS V14.00,2013-01-04 15:43:00,
2013-01-04 10:44:00,25.4,20.7,30.13,WSW,238,1.0,11.0,82,0.00,,---,0.00,VWS V14.00,2013-01-04 15:44:00,
2013-01-04 10:48:00,25.3,20.6,30.13,WSW,254,4.0,14.0,82,0.00,,---,0.00,VWS V14.00,2013-01-04 15:48:00,
2013-01-04 10:49:00,25.3,20.6,30.13,West,262,1.0,14.0,82,0.00,,---,0.00,VWS V14.00,2013-01-04 15:49:00,
2013-01-04 10:51:00,25.3,20.6,30.13,WSW,238,3.0,14.0,82,0.00,,---,0.00,VWS V14.00,2013-01-04 15:51:00,
2013-01-04 10:53:00,25.2,20.5,30.13,WSW,248,4.0,15.0,82,0.00,,---,0.00,VWS V14.00,2013-01-04 15:53:00,
2013-01-04 10:54:00,25.1,20.4,30.13,West,264,4.0,15.0,82,0.00,,---,0.00,VWS V14.00,2013-01-04 15:54:00,
2013-01-04 10:55:00,25.1,20.4,30.13,WSW,257,4.0,15.0,82,0.00,,---,0.00,VWS V14.00,2013-01-04 15:55:00,
2013-01-04 10:56:00,25.1,20.4,30.13,WSW,256,6.0,15.0,82,0.00,,---,0.00,VWS V14.00,2013-01-04 15:56:00,
2013-01-04 10:59:00,25.1,20.4,30.13,WSW,247,5.0,9.0,82,0.00,,---,0.00,VWS V14.00,2013-01-04 15:59:00,
2013-01-04 11:00:00,25.1,20.4,30.14,West,271,4.0,15.0,82,0.00,,---,0.00,VWS V14.00,2013-01-04 16:00:00,
2013-01-04 11:01:00,25.1,20.4,30.14,WSW,249,2.0,15.0,82,0.00,,---,0.00,VWS V14.00,2013-01-04 16:01:00,
2013-01-04 11:02:00,25.1,20.4,30.13,West,269,4.0,15.0,82,0.00,,---,0.00,VWS V14.00,2013-01-04 16:02:00,
2013-01-04 11:05:00,25.2,20.5,30.13,WSW,247,10.0,15.0,82,0.00,,---,0.00,VWS V14.00,2013-01-04 16:05:00,
2013-01-04 11:06:00,25.3,20.6,30.13,West,265,7.0,15.0,82,0.00,,---,0.00,VWS V14.00,2013-01-04 16:06:00,
2013-01-04 11:07:00,25.3,20.6,30.13,WNW,290,11.0,15.0,82,0.00,,---,0.00,VWS V14.00,2013-01-04 16:07:00,
2013-01-04 11:10:00,25.4,20.7,30.13,WSW,247,5.0,15.0,82,0.00,,---,0.00,VWS V14.00,2013-01-04 16:10:00,
2013-01-04 11:11:00,25.5,20.8,30.13,West,275,8.0,15.0,82,0.00,,---,0.00,VWS V14.00,2013-01-04 16:11:00,
2013-01-04 11:14:00,25.5,20.8,30.13,West,270,5.0,15.0,82,0.00,,---,0.00,VWS V14.00,2013-01-04 16:14:00,
2013-01-04 11:16:00,25.6,20.9,30.13,West,277,6.0,15.0,82,0.00,,---,0.00,VWS V14.00,2013-01-04 16:16:00,
2013-01-04 11:17:00,25.6,20.9,30.13,WSW,242,9.0,15.0,82,0.00,,---,0.00,VWS V14.00,2013-01-04 16:17:00,
2013-01-04 11:18:00,25.6,20.9,30.13,West,260,4.0,15.0,82,0.00,,---,0.00,VWS V14.00,2013-01-04 16:18:00,
2013-01-04 11:19:00,25.6,20.9,30.13,West,265,4.0,15.0,82,0.00,,---,0.00,VWS V14.00,2013-01-04 16:19:00,
2013-01-04 11:22:00,25.7,21.0,30.13,WNW,294,10.0,15.0,82,0.00,,---,0.00,VWS V14.00,2013-01-04 16:22:00,
2013-01-04 11:23:00,25.7,21.0,30.13,WSW,248,2.0,16.0,82,0.00,,---,0.00,VWS V14.00,2013-01-04 16:23:00,
2013-01-04 11:24:00,25.7,21.0,30.13,WNW,284,7.0,16.0,82,0.00,,---,0.00,VWS V14.00,2013-01-04 16:24:00,
2013-01-04 11:28:00,25.8,21.1,30.13,West,271,13.0,19.0,82,0.00,,---,0.00,VWS V14.00,2013-01-04 16:28:00,
2013-01-04 11:30:00,25.8,21.1,30.13,West,267,3.0,13.0,82,0.00,,---,0.00,VWS V14.00,2013-01-04 16:30:00,
2013-01-04 11:35:00,25.9,21.2,30.13,West,278,6.0,14.0,82,0.00,,---,0.00,VWS V14.00,2013-01-04 16:35:00,
2013-01-04 11:36:00,25.9,20.9,30.13,West,263,6.0,14.0,81,0.00,,---,0.00,VWS V14.00,2013-01-04 16:36:00,
2013-01-04 11:38:00,26.0,21.0,30.12,West,261,4.0,14.0,81,0.00,,---,0.00,VWS V14.00,2013-01-04 16:38:00,
2013-01-04 11:40:00,26.0,21.0,30.13,West,271,6.0,14.0,81,0.00,,---,0.00,VWS V14.00,2013-01-04 16:40:00,
2013-01-04 11:41:00,26.0,21.3,30.12,WNW,284,7.0,14.0,82,0.00,,---,0.00,VWS V14.00,2013-01-04 16:41:00,
2013-01-04 11:43:00,26.0,21.0,30.12,West,265,8.0,14.0,81,0.00,,---,0.00,VWS V14.00,2013-01-04 16:43:00,
2013-01-04 11:46:00,26.1,21.1,30.12,WSW,244,8.0,14.0,81,0.00,,---,0.00,VWS V14.00,2013-01-04 16:46:00,
2013-01-04 11:47:00,26.1,21.1,30.12,WNW,288,12.0,15.0,81,0.00,,---,0.00,VWS V14.00,2013-01-04 16:47:00,
2013-01-04 11:48:00,26.1,21.1,30.12,WNW,288,6.0,15.0,81,0.00,,---,0.00,VWS V14.00,2013-01-04 16:48:00,
2013-01-04 11:53:00,26.2,21.2,30.12,West,261,4.0,15.0,81,0.00,,---,0.00,VWS V14.00,2013-01-04 16:53:00,
2013-01-04 11:54:00,26.2,21.2,30.12,WNW,285,12.0,15.0,81,0.00,,---,0.00,VWS V14.00,2013-01-04 16:54:00,
2013-01-04 11:57:00,26.2,21.2,30.11,WNW,287,5.0,16.0,81,0.00,,---,0.00,VWS V14.00,2013-01-04 16:57:00,
2013-01-04 11:58:00,26.2,21.2,30.11,WNW,288,16.0,19.0,81,0.00,,---,0.00,VWS V14.00,2013-01-04 16:58:00,
2013-01-04 11:59:00,26.2,21.2,30.11,West,264,10.0,17.0,81,0.00,,---,0.00,VWS V14.00,2013-01-04 16:59:00,
2013-01-04 12:02:00,26.4,21.4,30.10,West,271,9.0,21.0,81,0.00,,---,0.00,VWS V14.00,2013-01-04 17:02:00,
2013-01-04 12:03:00,26.4,21.4,30.10,West,276,9.0,21.0,81,0.00,,---,0.00,VWS V14.00,2013-01-04 17:03:00,
2013-01-04 12:04:00,26.5,21.5,30.11,WNW,295,11.0,21.0,81,0.00,,---,0.00,VWS V14.00,2013-01-04 17:04:00,
2013-01-04 12:06:00,26.7,21.7,30.10,West,274,17.0,21.0,81,0.00,,---,0.00,VWS V14.00,2013-01-04 17:06:00,
2013-01-04 12:08:00,26.9,21.9,30.10,West,281,14.0,21.0,81,0.00,,---,0.00,VWS V14.00,2013-01-04 17:08:00,
2013-01-04 12:10:00,27.0,22.0,30.10,West,269,15.0,21.0,81,0.00,,---,0.00,VWS V14.00,2013-01-04 17:10:00,
2013-01-04 12:11:00,27.2,22.1,30.10,West,281,14.0,21.0,81,0.00,,---,0.00,VWS V14.00,2013-01-04 17:11:00,
2013-01-04 12:13:00,27.3,22.2,30.10,West,263,10.0,21.0,81,0.00,,---,0.00,VWS V14.00,2013-01-04 17:13:00,
2013-01-04 12:15:00,27.6,22.5,30.10,WNW,299,12.0,21.0,81,0.00,,---,0.00,VWS V14.00,2013-01-04 17:15:00,
2013-01-04 12:18:00,27.6,22.2,30.10,West,276,6.0,21.0,80,0.00,,---,0.00,VWS V14.00,2013-01-04 17:18:00,
2013-01-04 12:19:00,27.6,22.2,30.10,WNW,283,17.0,22.0,80,0.00,,---,0.00,VWS V14.00,2013-01-04 17:19:00,
2013-01-04 12:21:00,27.7,22.4,30.10,West,267,6.0,22.0,80,0.00,,---,0.00,VWS V14.00,2013-01-04 17:21:00,
2013-01-04 12:23:00,27.7,22.4,30.10,West,273,10.0,22.0,80,0.00,,---,0.00,VWS V14.00,2013-01-04 17:23:00,
2013-01-04 12:25:00,27.7,22.4,30.10,WNW,290,10.0,22.0,80,0.00,,---,0.00,VWS V14.00,2013-01-04 17:25:00,
2013-01-04 12:26:00,27.8,22.4,30.10,WNW,285,7.0,22.0,80,0.00,,---,0.00,VWS V14.00,2013-01-04 17:26:00,
2013-01-04 12:27:00,27.9,22.5,30.10,West,275,6.0,22.0,80,0.00,,---,0.00,VWS V14.00,2013-01-04 17:27:00,
2013-01-04 12:30:00,28.1,22.7,30.10,WSW,255,8.0,13.0,80,0.00,,---,0.00,VWS V14.00,2013-01-04 17:30:00,
2013-01-04 12:32:00,28.3,22.9,30.10,West,268,11.0,16.0,80,0.00,,---,0.00,VWS V14.00,2013-01-04 17:32:00,
2013-01-04 12:33:00,28.3,22.9,30.10,West,280,10.0,16.0,80,0.00,,---,0.00,VWS V14.00,2013-01-04 17:33:00,
2013-01-04 12:35:00,28.3,22.6,30.10,WNW,286,6.0,18.0,79,0.00,,---,0.00,VWS V14.00,2013-01-04 17:35:00,
2013-01-04 12:37:00,28.3,22.6,30.10,WSW,254,7.0,19.0,79,0.00,,---,0.00,VWS V14.00,2013-01-04 17:37:00,
2013-01-04 12:38:00,28.2,22.5,30.10,WNW,286,12.0,19.0,79,0.00,,---,0.00,VWS V14.00,2013-01-04 17:38:00,
2013-01-04 12:39:00,28.2,22.5,30.10,WNW,294,10.0,19.0,79,0.00,,---,0.00,VWS V14.00,2013-01-04 17:39:00,
2013-01-04 12:40:00,28.2,22.5,30.10,SW,236,5.0,19.0,79,0.00,,---,0.00,VWS V14.00,2013-01-04 17:40:00,
2013-01-04 12:42:00,28.2,22.5,30.10,WSW,258,5.0,19.0,79,0.00,,---,0.00,VWS V14.00,2013-01-04 17:42:00,
2013-01-04 12:44:00,28.3,22.6,30.10,West,268,19.0,20.0,79,0.00,,---,0.00,VWS V14.00,2013-01-04 17:44:00,
2013-01-04 12:45:00,28.3,22.6,30.09,West,280,13.0,22.0,79,0.00,,---,0.00,VWS V14.00,2013-01-04 17:45:00,
2013-01-04 12:47:00,28.0,22.0,30.09,WSW,253,16.0,22.0,78,0.00,,---,0.00,VWS V14.00,2013-01-04 17:47:00,
2013-01-04 12:49:00,27.9,22.2,30.09,West,278,9.0,22.0,79,0.00,,---,0.00,VWS V14.00,2013-01-04 17:49:00,
2013-01-04 12:50:00,27.9,22.2,30.09,WSW,252,6.0,22.0,79,0.00,,---,0.00,VWS V14.00,2013-01-04 17:50:00,
2013-01-04 12:53:00,28.1,22.4,30.09,WNW,290,9.0,22.0,79,0.00,,---,0.00,VWS V14.00,2013-01-04 17:53:00,
2013-01-04 12:54:00,28.2,22.5,30.09,West,275,12.0,22.0,79,0.00,,---,0.00,VWS V14.00,2013-01-04 17:54:00,
2013-01-04 12:55:00,28.2,22.5,30.09,West,267,2.0,22.0,79,0.00,,---,0.00,VWS V14.00,2013-01-04 17:55:00,
2013-01-04 12:56:00,28.2,22.5,30.09,West,268,15.0,22.0,79,0.00,,---,0.00,VWS V14.00,2013-01-04 17:56:00,
2013-01-04 12:58:00,28.4,22.7,30.09,West,271,9.0,15.0,79,0.00,,---,0.00,VWS V14.00,2013-01-04 17:58:00,
2013-01-04 13:00:00,28.7,23.0,30.08,West,264,6.0,18.0,79,0.00,,---,0.00,VWS V14.00,2013-01-04 18:00:00,
2013-01-04 13:01:00,28.7,23.0,30.08,West,261,14.0,20.0,79,0.00,,---,0.00,VWS V14.00,2013-01-04 18:01:00,
2013-01-04 13:02:00,28.7,22.7,30.08,West,280,16.0,21.0,78,0.00,,---,0.00,VWS V14.00,2013-01-04 18:02:00,
2013-01-04 13:03:00,28.6,22.6,30.08,WSW,248,7.0,23.0,78,0.00,,---,0.00,VWS V14.00,2013-01-04 18:03:00,
2013-01-04 13:06:00,28.4,22.4,30.08,West,265,2.0,23.0,78,0.00,,---,0.00,VWS V14.00,2013-01-04 18:06:00,
2013-01-04 13:07:00,28.4,22.4,30.08,West,263,8.0,23.0,78,0.00,,---,0.00,VWS V14.00,2013-01-04 18:07:00,
2013-01-04 13:11:00,28.6,22.6,30.08,West,263,5.0,23.0,78,0.00,,---,0.00,VWS V14.00,2013-01-04 18:11:00,
2013-01-04 13:12:00,28.6,22.6,30.08,WNW,286,7.0,23.0,78,0.00,,---,0.00,VWS V14.00,2013-01-04 18:12:00,
2013-01-04 13:13:00,28.7,22.7,30.09,WNW,291,14.0,23.0,78,0.00,,---,0.00,VWS V14.00,2013-01-04 18:13:00,
2013-01-04 13:17:00,28.5,22.2,30.08,West,273,18.0,25.0,77,0.00,,---,0.00,VWS V14.00,2013-01-04 18:17:00,
2013-01-04 13:18:00,28.5,22.5,30.08,West,272,12.0,25.0,78,0.00,,---,0.00,VWS V14.00,2013-01-04 18:18:00,
2013-01-04 13:19:00,28.6,22.6,30.08,WSW,254,15.0,25.0,78,0.00,,---,0.00,VWS V14.00,2013-01-04 18:19:00,
2013-01-04 13:23:00,28.5,22.5,30.08,WNW,284,18.0,25.0,78,0.00,,---,0.00,VWS V14.00,2013-01-04 18:23:00,
2013-01-04 13:25:00,28.7,22.7,30.08,West,269,14.0,25.0,78,0.00,,---,0.00,VWS V14.00,2013-01-04 18:25:00,
2013-01-04 13:27:00,28.7,22.7,30.08,WSW,244,5.0,25.0,78,0.00,,---,0.00,VWS V14.00,2013-01-04 18:27:00,
2013-01-04 13:28:00,28.8,22.5,30.08,West,277,10.0,25.0,77,0.00,,---,0.00,VWS V14.00,2013-01-04 18:28:00,
2013-01-04 13:31:00,29.1,23.1,30.08,West,274,12.0,15.0,78,0.00,,---,0.00,VWS V14.00,2013-01-04 18:31:00,
2013-01-04 13:33:00,29.4,23.1,30.07,WSW,252,12.0,25.0,77,0.00,,---,0.00,VWS V14.00,2013-01-04 18:33:00,
2013-01-04 13:34:00,29.4,23.1,30.07,West,273,9.0,25.0,77,0.00,,---,0.00,VWS V14.00,2013-01-04 18:34:00,
2013-01-04 13:35:00,29.6,23.3,30.07,West,264,19.0,25.0,77,0.00,,---,0.00,VWS V14.00,2013-01-04 18:35:00,
2013-01-04 13:38:00,29.9,23.6,30.07,West,280,14.0,25.0,77,0.00,,---,0.00,VWS V14.00,2013-01-04 18:38:00,
2013-01-04 13:40:00,30.0,23.4,30.07,WNW,299,6.0,25.0,76,0.00,,---,0.00,VWS V14.00,2013-01-04 18:40:00,
2013-01-04 13:41:00,30.1,23.5,30.07,WSW,252,13.0,25.0,76,0.00,,---,0.00,VWS V14.00,2013-01-04 18:41:00,
2013-01-04 13:42:00,30.2,23.6,30.07,West,261,11.0,25.0,76,0.00,,---,0.00,VWS V14.00,2013-01-04 18:42:00,
2013-01-04 13:43:00,30.3,23.3,30.07,SW,231,5.0,25.0,75,0.00,,---,0.00,VWS V14.00,2013-01-04 18:43:00,
2013-01-04 13:45:00,30.4,23.4,30.07,WNW,292,11.0,25.0,75,0.00,,---,0.00,VWS V14.00,2013-01-04 18:45:00,
2013-01-04 13:46:00,30.5,23.5,30.07,WNW,296,15.0,25.0,75,0.00,,---,0.00,VWS V14.00,2013-01-04 18:46:00,
2013-01-04 13:47:00,30.6,23.6,30.07,West,274,15.0,25.0,75,0.00,,---,0.00,VWS V14.00,2013-01-04 18:47:00,
2013-01-04 13:49:00,30.8,23.8,30.07,West,277,10.0,25.0,75,0.00,,---,0.00,VWS V14.00,2013-01-04 18:49:00,
2013-01-04 13:51:00,30.8,23.5,30.07,WNW,292,14.0,25.0,74,0.00,,---,0.00,VWS V14.00,2013-01-04 18:51:00,
2013-01-04 13:54:00,31.1,23.8,30.07,WNW,283,16.0,25.0,74,0.00,,---,0.00,VWS V14.00,2013-01-04 18:54:00,
2013-01-04 13:55:00,31.1,23.8,30.07,West,272,13.0,25.0,74,0.00,,---,0.00,VWS V14.00,2013-01-04 18:55:00,
2013-01-04 13:57:00,31.1,23.5,30.06,West,271,5.0,25.0,73,0.00,,---,0.00,VWS V14.00,2013-01-04 18:57:00,
2013-01-04 13:58:00,31.1,23.5,30.07,West,265,13.0,25.0,73,0.00,,---,0.00,VWS V14.00,2013-01-04 18:58:00,
2013-01-04 14:00:00,31.1,23.5,30.06,West,278,20.0,24.0,73,0.00,,---,0.00,VWS V14.00,2013-01-04 19:00:00,
2013-01-04 14:01:00,31.1,23.5,30.06,WSW,256,14.0,24.0,73,0.00,,---,0.00,VWS V14.00,2013-01-04 19:01:00,
2013-01-04 14:03:00,31.2,23.6,30.07,WSW,256,9.0,24.0,73,0.00,,---,0.00,VWS V14.00,2013-01-04 19:03:00,
2013-01-04 14:05:00,31.2,23.6,30.07,WNW,286,16.0,24.0,73,0.00,,---,0.00,VWS V14.00,2013-01-04 19:05:00,
2013-01-04 14:06:00,31.3,23.7,30.07,West,272,5.0,24.0,73,0.00,,---,0.00,VWS V14.00,2013-01-04 19:06:00,
2013-01-04 14:09:00,31.3,23.7,30.06,West,277,19.0,24.0,73,0.00,,---,0.00,VWS V14.00,2013-01-04 19:09:00,
2013-01-04 14:12:00,31.4,23.8,30.06,WNW,286,11.0,25.0,73,0.00,,---,0.00,VWS V14.00,2013-01-04 19:12:00,
2013-01-04 14:14:00,31.5,23.5,30.07,West,271,16.0,25.0,72,0.00,,---,0.00,VWS V14.00,2013-01-04 19:14:00,
2013-01-04 14:17:00,31.6,23.6,30.07,WNW,290,9.0,25.0,72,0.00,,---,0.00,VWS V14.00,2013-01-04 19:17:00,
2013-01-04 14:19:00,31.8,23.8,30.07,WNW,285,17.0,25.0,72,0.00,,---,0.00,VWS V14.00,2013-01-04 19:19:00,
2013-01-04 14:20:00,31.8,23.8,30.06,WNW,287,7.0,25.0,72,0.00,,---,0.00,VWS V14.00,2013-01-04 19:20:00,
2013-01-04 14:22:00,31.9,23.6,30.07,West,275,18.0,25.0,71,0.00,,---,0.00,VWS V14.00,2013-01-04 19:22:00,
2013-01-04 14:24:00,31.9,23.6,30.07,West,273,11.0,25.0,71,0.00,,---,0.00,VWS V14.00,2013-01-04 19:24:00,
2013-01-04 14:25:00,32.0,23.7,30.06,West,273,16.0,25.0,71,0.00,,---,0.00,VWS V14.00,2013-01-04 19:25:00,
2013-01-04 14:28:00,32.0,23.7,30.07,West,269,13.0,25.0,71,0.00,,---,0.00,VWS V14.00,2013-01-04 19:28:00,
2013-01-04 14:29:00,32.0,23.7,30.06,West,268,16.0,26.0,71,0.00,,---,0.00,VWS V14.00,2013-01-04 19:29:00,
2013-01-04 14:30:00,32.0,23.7,30.07,West,279,10.0,26.0,71,0.00,,---,0.00,VWS V14.00,2013-01-04 19:30:00,
2013-01-04 14:31:00,32.0,23.7,30.07,WSW,257,8.0,26.0,71,0.00,,---,0.00,VWS V14.00,2013-01-04 19:31:00,
2013-01-04 14:33:00,32.1,23.8,30.07,West,271,14.0,26.0,71,0.00,,---,0.00,VWS V14.00,2013-01-04 19:33:00,
2013-01-04 14:35:00,32.2,23.5,30.07,West,279,5.0,26.0,70,0.00,,---,0.00,VWS V14.00,2013-01-04 19:35:00,
2013-01-04 14:36:00,32.2,23.5,30.07,West,275,7.0,26.0,70,0.00,,---,0.00,VWS V14.00,2013-01-04 19:36:00,
2013-01-04 14:37:00,32.2,23.5,30.07,West,272,11.0,26.0,70,0.00,,---,0.00,VWS V14.00,2013-01-04 19:37:00,
2013-01-04 14:40:00,32.3,23.6,30.07,West,270,3.0,26.0,70,0.00,,---,0.00,VWS V14.00,2013-01-04 19:40:00,
2013-01-04 14:41:00,32.4,23.7,30.07,West,263,4.0,26.0,70,0.00,,---,0.00,VWS V14.00,2013-01-04 19:41:00,
2013-01-04 14:42:00,32.5,24.2,30.07,West,277,17.0,26.0,71,0.00,,---,0.00,VWS V14.00,2013-01-04 19:42:00,
2013-01-04 14:43:00,32.5,23.8,30.07,West,275,22.0,26.0,70,0.00,,---,0.00,VWS V14.00,2013-01-04 19:43:00,
2013-01-04 14:46:00,32.5,23.8,30.07,West,263,5.0,26.0,70,0.00,,---,0.00,VWS V14.00,2013-01-04 19:46:00,
2013-01-04 14:47:00,32.5,23.8,30.07,West,267,7.0,26.0,70,0.00,,---,0.00,VWS V14.00,2013-01-04 19:47:00,
2013-01-04 14:49:00,32.5,23.8,30.07,West,268,11.0,26.0,70,0.00,,---,0.00,VWS V14.00,2013-01-04 19:49:00,
2013-01-04 14:51:00,32.5,23.8,30.07,WNW,298,14.0,26.0,70,0.00,,---,0.00,VWS V14.00,2013-01-04 19:51:00,
2013-01-04 14:52:00,32.6,23.9,30.07,WNW,297,12.0,26.0,70,0.00,,---,0.00,VWS V14.00,2013-01-04 19:52:00,
2013-01-04 14:55:00,32.7,24.0,30.06,WSW,248,14.0,26.0,70,0.00,,---,0.00,VWS V14.00,2013-01-04 19:55:00,
2013-01-04 14:57:00,32.8,24.1,30.07,WNW,288,6.0,26.0,70,0.00,,---,0.00,VWS V14.00,2013-01-04 19:57:00,
2013-01-04 14:58:00,32.8,24.1,30.07,WSW,250,6.0,26.0,70,0.00,,---,0.00,VWS V14.00,2013-01-04 19:58:00,
2013-01-04 14:59:00,32.9,24.2,30.07,West,272,12.0,16.0,70,0.00,,---,0.00,VWS V14.00,2013-01-04 19:59:00,
2013-01-04 15:00:00,33.0,24.3,30.07,West,275,19.0,19.0,70,0.00,,---,0.00,VWS V14.00,2013-01-04 20:00:00,
2013-01-04 15:02:00,33.0,24.3,30.07,WSW,257,13.0,21.0,70,0.00,,---,0.00,VWS V14.00,2013-01-04 20:02:00,
2013-01-04 15:04:00,33.0,24.0,30.06,West,263,15.0,21.0,69,0.00,,---,0.00,VWS V14.00,2013-01-04 20:04:00,
2013-01-04 15:05:00,33.0,24.0,30.06,West,263,9.0,21.0,69,0.00,,---,0.00,VWS V14.00,2013-01-04 20:05:00,
2013-01-04 15:06:00,32.9,23.9,30.06,WSW,255,13.0,21.0,69,0.00,,---,0.00,VWS V14.00,2013-01-04 20:06:00,
2013-01-04 15:08:00,32.9,24.2,30.06,West,280,7.0,25.0,70,0.00,,---,0.00,VWS V14.00,2013-01-04 20:08:00,
2013-01-04 15:10:00,32.9,24.2,30.07,West,276,14.0,25.0,70,0.00,,---,0.00,VWS V14.00,2013-01-04 20:10:00,
2013-01-04 15:11:00,33.0,24.3,30.06,West,281,19.0,25.0,70,0.00,,---,0.00,VWS V14.00,2013-01-04 20:11:00,
2013-01-04 15:15:00,33.1,24.4,30.06,West,281,19.0,25.0,70,0.00,,---,0.00,VWS V14.00,2013-01-04 20:15:00,
2013-01-04 15:16:00,33.1,24.4,30.06,WNW,291,19.0,25.0,70,0.00,,---,0.00,VWS V14.00,2013-01-04 20:16:00,
2013-01-04 15:17:00,33.1,24.4,30.06,West,277,17.0,25.0,70,0.00,,---,0.00,VWS V14.00,2013-01-04 20:17:00,
2013-01-04 15:21:00,33.1,24.4,30.06,West,272,11.0,25.0,70,0.00,,---,0.00,VWS V14.00,2013-01-04 20:21:00,
2013-01-04 15:22:00,33.1,24.4,30.06,West,274,18.0,25.0,70,0.00,,---,0.00,VWS V14.00,2013-01-04 20:22:00,
2013-01-04 15:23:00,33.1,24.0,30.07,West,280,11.0,25.0,69,0.00,,---,0.00,VWS V14.00,2013-01-04 20:23:00,
2013-01-04 15:26:00,33.2,24.5,30.06,West,280,15.0,25.0,70,0.00,,---,0.00,VWS V14.00,2013-01-04 20:26:00,
2013-01-04 15:27:00,33.2,24.5,30.06,WNW,288,12.0,25.0,70,0.00,,---,0.00,VWS V14.00,2013-01-04 20:27:00,
2013-01-04 15:28:00,33.2,24.5,30.06,WNW,283,12.0,25.0,70,0.00,,---,0.00,VWS V14.00,2013-01-04 20:28:00,
2013-01-04 15:29:00,33.2,24.5,30.07,WNW,290,9.0,12.0,70,0.00,,---,0.00,VWS V14.00,2013-01-04 20:29:00,
2013-01-04 15:31:00,33.2,24.5,30.06,West,268,14.0,22.0,70,0.00,,---,0.00,VWS V14.00,2013-01-04 20:31:00,
2013-01-04 15:33:00,33.3,24.6,30.06,West,268,9.0,22.0,70,0.00,,---,0.00,VWS V14.00,2013-01-04 20:33:00,
2013-01-04 15:34:00,33.4,24.7,30.06,WNW,283,13.0,22.0,70,0.00,,---,0.00,VWS V14.00,2013-01-04 20:34:00,
2013-01-04 15:36:00,33.5,24.4,30.07,WNW,283,11.0,22.0,69,0.00,,---,0.00,VWS V14.00,2013-01-04 20:36:00,
2013-01-04 15:38:00,33.4,24.0,30.07,West,279,14.0,22.0,68,0.00,,---,0.00,VWS V14.00,2013-01-04 20:38:00,
2013-01-04 15:39:00,33.3,23.9,30.07,WSW,247,7.0,22.0,68,0.00,,---,0.00,VWS V14.00,2013-01-04 20:39:00,
2013-01-04 15:42:00,33.2,23.8,30.07,West,264,9.0,22.0,68,0.00,,---,0.00,VWS V14.00,2013-01-04 20:42:00,
2013-01-04 15:43:00,33.2,23.8,30.07,West,281,5.0,22.0,68,0.00,,---,0.00,VWS V14.00,2013-01-04 20:43:00,
2013-01-04 15:45:00,33.2,23.8,30.07,West,270,17.0,22.0,68,0.00,,---,0.00,VWS V14.00,2013-01-04 20:45:00,
2013-01-04 15:46:00,33.2,23.8,30.07,West,274,11.0,22.0,68,0.00,,---,0.00,VWS V14.00,2013-01-04 20:46:00,
2013-01-04 15:49:00,33.3,23.9,30.07,West,271,5.0,22.0,68,0.00,,---,0.00,VWS V14.00,2013-01-04 20:49:00,
2013-01-04 15:50:00,33.3,23.9,30.07,West,263,16.0,22.0,68,0.00,,---,0.00,VWS V14.00,2013-01-04 20:50:00,
2013-01-04 15:51:00,33.3,23.9,30.08,West,275,8.0,22.0,68,0.00,,---,0.00,VWS V14.00,2013-01-04 20:51:00,
2013-01-04 15:54:00,33.4,24.0,30.08,West,277,11.0,22.0,68,0.00,,---,0.00,VWS V14.00,2013-01-04 20:54:00,
2013-01-04 15:55:00,33.4,24.0,30.08,WSW,249,5.0,22.0,68,0.00,,---,0.00,VWS V14.00,2013-01-04 20:55:00,
2013-01-04 15:57:00,33.4,24.0,30.08,WSW,250,9.0,22.0,68,0.00,,---,0.00,VWS V14.00,2013-01-04 20:57:00,
2013-01-04 15:58:00,33.4,24.0,30.08,West,275,9.0,22.0,68,0.00,,---,0.00,VWS V14.00,2013-01-04 20:58:00,
2013-01-04 16:01:00,33.3,23.9,30.08,West,268,13.0,16.0,68,0.00,,---,0.00,VWS V14.00,2013-01-04 21:01:00,
2013-01-04 16:02:00,33.3,23.9,30.08,West,277,13.0,19.0,68,0.00,,---,0.00,VWS V14.00,2013-01-04 21:02:00,
2013-01-04 16:03:00,33.3,23.9,30.08,West,269,6.0,19.0,68,0.00,,---,0.00,VWS V14.00,2013-01-04 21:03:00,
2013-01-04 16:04:00,33.2,23.8,30.08,WSW,253,7.0,19.0,68,0.00,,---,0.00,VWS V14.00,2013-01-04 21:04:00,
2013-01-04 16:06:00,33.2,23.8,30.08,West,273,11.0,19.0,68,0.00,,---,0.00,VWS V14.00,2013-01-04 21:06:00,
2013-01-04 16:07:00,33.2,23.8,30.08,WSW,246,6.0,19.0,68,0.00,,---,0.00,VWS V14.00,2013-01-04 21:07:00,
2013-01-04 16:08:00,33.2,23.8,30.08,West,276,6.0,19.0,68,0.00,,---,0.00,VWS V14.00,2013-01-04 21:08:00,
2013-01-04 16:11:00,33.2,23.8,30.08,West,269,12.0,19.0,68,0.00,,---,0.00,VWS V14.00,2013-01-04 21:11:00,
2013-01-04 16:12:00,33.2,23.8,30.08,West,259,5.0,19.0,68,0.00,,---,0.00,VWS V14.00,2013-01-04 21:12:00,
2013-01-04 16:16:00,33.2,24.1,30.08,West,267,6.0,23.0,69,0.00,,---,0.00,VWS V14.00,2013-01-04 21:16:00,
2013-01-04 16:17:00,33.2,24.1,30.08,WSW,256,5.0,23.0,69,0.00,,---,0.00,VWS V14.00,2013-01-04 21:17:00,
2013-01-04 16:18:00,33.3,24.2,30.08,West,271,5.0,23.0,69,0.00,,---,0.00,VWS V14.00,2013-01-04 21:18:00,
2013-01-04 16:22:00,33.4,24.3,30.08,West,270,5.0,23.0,69,0.00,,---,0.00,VWS V14.00,2013-01-04 21:22:00,
2013-01-04 16:24:00,33.5,24.4,30.08,West,267,6.0,23.0,69,0.00,,---,0.00,VWS V14.00,2013-01-04 21:24:00,
2013-01-04 16:25:00,33.5,24.4,30.08,West,281,10.0,23.0,69,0.00,,---,0.00,VWS V14.00,2013-01-04 21:25:00,
2013-01-04 16:29:00,33.6,24.5,30.08,West,279,8.0,13.0,69,0.00,,---,0.00,VWS V14.00,2013-01-04 21:29:00,
2013-01-04 16:30:00,33.6,24.5,30.08,West,259,4.0,13.0,69,0.00,,---,0.00,VWS V14.00,2013-01-04 21:30:00,
2013-01-04 16:32:00,33.6,24.5,30.08,West,269,5.0,13.0,69,0.00,,---,0.00,VWS V14.00,2013-01-04 21:32:00,
2013-01-04 16:33:00,33.6,24.5,30.08,WSW,253,6.0,13.0,69,0.00,,---,0.00,VWS V14.00,2013-01-04 21:33:00,
2013-01-04 16:34:00,33.6,24.5,30.08,West,260,9.0,16.0,69,0.00,,---,0.00,VWS V14.00,2013-01-04 21:34:00,
2013-01-04 16:35:00,33.5,24.4,30.08,West,279,16.0,17.0,69,0.00,,---,0.00,VWS V14.00,2013-01-04 21:35:00,
2013-01-04 16:38:00,33.5,24.4,30.08,West,280,15.0,26.0,69,0.00,,---,0.00,VWS V14.00,2013-01-04 21:38:00,
2013-01-04 16:39:00,33.4,24.3,30.08,West,272,16.0,26.0,69,0.00,,---,0.00,VWS V14.00,2013-01-04 21:39:00,
2013-01-04 16:41:00,33.4,24.7,30.09,West,279,20.0,26.0,70,0.00,,---,0.00,VWS V14.00,2013-01-04 21:41:00,
2013-01-04 16:43:00,33.4,24.7,30.09,WNW,293,19.0,26.0,70,0.00,,---,0.00,VWS V14.00,2013-01-04 21:43:00,
2013-01-04 16:44:00,33.4,24.7,30.09,West,281,15.0,26.0,70,0.00,,---,0.00,VWS V14.00,2013-01-04 21:44:00,
2013-01-04 16:47:00,33.4,24.7,30.09,West,267,3.0,26.0,70,0.00,,---,0.00,VWS V14.00,2013-01-04 21:47:00,
2013-01-04 16:48:00,33.4,24.7,30.09,WSW,256,12.0,26.0,70,0.00,,---,0.00,VWS V14.00,2013-01-04 21:48:00,
2013-01-04 16:49:00,33.4,24.7,30.09,West,281,10.0,26.0,70,0.00,,---,0.00,VWS V14.00,2013-01-04 21:49:00,
2013-01-04 16:53:00,33.5,24.8,30.09,West,265,12.0,26.0,70,0.00,,---,0.00,VWS V14.00,2013-01-04 21:53:00,
2013-01-04 16:56:00,33.5,24.8,30.09,West,273,9.0,26.0,70,0.00,,---,0.00,VWS V14.00,2013-01-04 21:56:00,
2013-01-04 16:58:00,33.5,24.8,30.09,West,276,11.0,26.0,70,0.00,,---,0.00,VWS V14.00,2013-01-04 21:58:00,
2013-01-04 17:03:00,33.4,24.7,30.09,WNW,283,7.0,16.0,70,0.00,,---,0.00,VWS V14.00,2013-01-04 22:03:00,
2013-01-04 17:06:00,33.3,24.6,30.09,West,265,12.0,16.0,70,0.00,,---,0.00,VWS V14.00,2013-01-04 22:06:00,
2013-01-04 17:07:00,33.3,24.6,30.09,WSW,253,13.0,17.0,70,0.00,,---,0.00,VWS V14.00,2013-01-04 22:07:00,
2013-01-04 17:09:00,33.3,24.6,30.10,WNW,302,7.0,17.0,70,0.00,,---,0.00,VWS V14.00,2013-01-04 22:09:00,
2013-01-04 17:10:00,33.2,24.8,30.09,West,271,7.0,17.0,71,0.00,,---,0.00,VWS V14.00,2013-01-04 22:10:00,
2013-01-04 17:13:00,33.2,24.8,30.09,West,279,4.0,17.0,71,0.00,,---,0.00,VWS V14.00,2013-01-04 22:13:00,
2013-01-04 17:15:00,33.2,24.8,30.10,West,268,9.0,17.0,71,0.00,,---,0.00,VWS V14.00,2013-01-04 22:15:00,
2013-01-04 17:17:00,33.1,24.7,30.10,West,271,5.0,17.0,71,0.00,,---,0.00,VWS V14.00,2013-01-04 22:17:00,
2013-01-04 17:18:00,33.1,24.4,30.10,West,281,9.0,17.0,70,0.00,,---,0.00,VWS V14.00,2013-01-04 22:18:00,
2013-01-04 17:21:00,33.0,24.6,30.10,West,267,3.0,17.0,71,0.00,,---,0.00,VWS V14.00,2013-01-04 22:21:00,
2013-01-04 17:25:00,32.9,24.5,30.10,WSW,248,1.0,17.0,71,0.00,,---,0.00,VWS V14.00,2013-01-04 22:25:00,
2013-01-04 17:26:00,32.8,24.1,30.10,South,190,1.0,17.0,70,0.00,,---,0.00,VWS V14.00,2013-01-04 22:26:00,
2013-01-04 17:30:00,32.4,23.7,30.10,WSW,239,11.0,11.0,70,0.00,,---,0.00,VWS V14.00,2013-01-04 22:30:00,
2013-01-04 17:31:00,32.1,23.4,30.10,West,259,4.0,14.0,70,0.00,,---,0.00,VWS V14.00,2013-01-04 22:31:00,
2013-01-04 17:33:00,31.8,23.1,30.10,WSW,253,0.0,14.0,70,0.00,,---,0.00,VWS V14.00,2013-01-04 22:33:00,
2013-01-04 17:36:00,31.5,22.9,30.10,SSW,199,3.0,14.0,70,0.00,,---,0.00,VWS V14.00,2013-01-04 22:36:00,
2013-01-04 17:37:00,31.4,22.8,30.10,WSW,246,0.0,14.0,70,0.00,,---,0.00,VWS V14.00,2013-01-04 22:37:00,
2013-01-04 17:39:00,31.2,22.6,30.10,WSW,240,0.0,14.0,70,0.00,,---,0.00,VWS V14.00,2013-01-04 22:39:00,
2013-01-04 17:41:00,31.1,22.8,30.11,West,260,3.0,14.0,71,0.00,,---,0.00,VWS V14.00,2013-01-04 22:41:00,
2013-01-04 17:43:00,31.0,22.7,30.11,WSW,245,3.0,14.0,71,0.00,,---,0.00,VWS V14.00,2013-01-04 22:43:00,
2013-01-04 17:44:00,31.0,22.7,30.11,SW,221,6.0,14.0,71,0.00,,---,0.00,VWS V14.00,2013-01-04 22:44:00,
2013-01-04 17:45:00,30.9,22.6,30.11,West,267,2.0,14.0,71,0.00,,---,0.00,VWS V14.00,2013-01-04 22:45:00,
2013-01-04 17:46:00,30.9,22.6,30.11,West,266,6.0,14.0,71,0.00,,---,0.00,VWS V14.00,2013-01-04 22:46:00,
2013-01-04 17:49:00,30.7,22.4,30.11,WSW,238,3.0,14.0,71,0.00,,---,0.00,VWS V14.00,2013-01-04 22:49:00,
2013-01-04 17:50:00,30.7,22.4,30.11,SW,219,3.0,14.0,71,0.00,,---,0.00,VWS V14.00,2013-01-04 22:50:00,
2013-01-04 17:52:00,30.7,22.4,30.11,SW,233,0.0,14.0,71,0.00,,---,0.00,VWS V14.00,2013-01-04 22:52:00,
2013-01-04 17:54:00,30.6,22.7,30.11,SW,225,0.0,14.0,72,0.00,,---,0.00,VWS V14.00,2013-01-04 22:54:00,
2013-01-04 17:55:00,30.6,22.7,30.11,WSW,245,1.0,14.0,72,0.00,,---,0.00,VWS V14.00,2013-01-04 22:55:00,
2013-01-04 17:58:00,30.5,22.6,30.11,SW,229,0.0,14.0,72,0.00,,---,0.00,VWS V14.00,2013-01-04 22:58:00,
2013-01-04 18:00:00,30.5,22.6,30.12,SW,232,0.0,0.0,72,0.00,,---,0.00,VWS V14.00,2013-01-04 23:00:00,
2013-01-04 18:01:00,30.5,22.6,30.12,SW,227,0.0,0.0,72,0.00,,---,0.00,VWS V14.00,2013-01-04 23:01:00,
2013-01-04 18:03:00,30.3,22.4,30.12,SW,220,0.0,0.0,72,0.00,,---,0.00,VWS V14.00,2013-01-04 23:03:00,
2013-01-04 18:04:00,30.3,22.4,30.12,SW,222,0.0,3.0,72,0.00,,---,0.00,VWS V14.00,2013-01-04 23:04:00,
2013-01-04 18:06:00,30.2,22.3,30.12,WSW,240,0.0,5.0,72,0.00,,---,0.00,VWS V14.00,2013-01-04 23:06:00,
2013-01-04 18:08:00,30.2,22.3,30.12,West,267,6.0,6.0,72,0.00,,---,0.00,VWS V14.00,2013-01-04 23:08:00,
2013-01-04 18:09:00,30.1,22.2,30.12,West,260,0.0,6.0,72,0.00,,---,0.00,VWS V14.00,2013-01-04 23:09:00,
2013-01-04 18:11:00,30.1,22.5,30.12,WSW,254,0.0,6.0,73,0.00,,---,0.00,VWS V14.00,2013-01-04 23:11:00,
2013-01-04 18:12:00,30.0,22.4,30.12,WSW,250,6.0,6.0,73,0.00,,---,0.00,VWS V14.00,2013-01-04 23:12:00,
2013-01-04 18:14:00,29.9,22.3,30.12,WSW,246,1.0,6.0,73,0.00,,---,0.00,VWS V14.00,2013-01-04 23:14:00,
2013-01-04 18:17:00,29.9,22.3,30.12,West,268,6.0,6.0,73,0.00,,---,0.00,VWS V14.00,2013-01-04 23:17:00,
2013-01-04 18:18:00,29.9,22.3,30.12,WSW,242,4.0,6.0,73,0.00,,---,0.00,VWS V14.00,2013-01-04 23:18:00,
2013-01-04 18:19:00,29.9,22.3,30.12,West,265,4.0,7.0,73,0.00,,---,0.00,VWS V14.00,2013-01-04 23:19:00,
2013-01-04 18:20:00,29.9,22.3,30.12,WSW,249,1.0,7.0,73,0.00,,---,0.00,VWS V14.00,2013-01-04 23:20:00,
2013-01-04 18:23:00,29.8,22.2,30.12,WSW,252,5.0,7.0,73,0.00,,---,0.00,VWS V14.00,2013-01-04 23:23:00,
2013-01-04 18:24:00,29.8,22.5,30.12,SW,226,3.0,7.0,74,0.00,,---,0.00,VWS V14.00,2013-01-04 23:24:00,
2013-01-04 18:26:00,29.8,22.5,30.13,West,265,2.0,7.0,74,0.00,,---,0.00,VWS V14.00,2013-01-04 23:26:00,
2013-01-04 18:28:00,29.8,22.5,30.12,West,265,4.0,7.0,74,0.00,,---,0.00,VWS V14.00,2013-01-04 23:28:00,
2013-01-04 18:30:00,29.7,22.4,30.12,West,259,3.0,8.0,74,0.00,,---,0.00,VWS V14.00,2013-01-04 23:30:00,
2013-01-04 18:31:00,29.8,22.5,30.13,West,265,3.0,8.0,74,0.00,,---,0.00,VWS V14.00,2013-01-04 23:31:00,
2013-01-04 18:33:00,29.7,22.4,30.13,WSW,255,2.0,8.0,74,0.00,,---,0.00,VWS V14.00,2013-01-04 23:33:00,
2013-01-04 18:35:00,29.7,22.4,30.13,West,271,3.0,9.0,74,0.00,,---,0.00,VWS V14.00,2013-01-04 23:35:00,
2013-01-04 18:37:00,29.7,22.4,30.13,West,275,3.0,9.0,74,0.00,,---,0.00,VWS V14.00,2013-01-04 23:37:00,
2013-01-04 18:39:00,29.7,22.8,30.13,WSW,237,0.0,9.0,75,0.00,,---,0.00,VWS V14.00,2013-01-04 23:39:00,
2013-01-04 18:40:00,29.6,22.7,30.13,WSW,241,1.0,9.0,75,0.00,,---,0.00,VWS V14.00,2013-01-04 23:40:00,
2013-01-04 18:42:00,29.7,22.8,30.13,SW,234,0.0,9.0,75,0.00,,---,0.00,VWS V14.00,2013-01-04 23:42:00,
2013-01-04 18:43:00,29.6,22.7,30.13,WSW,246,0.0,9.0,75,0.00,,---,0.00,VWS V14.00,2013-01-04 23:43:00,
2013-01-04 18:46:00,29.6,22.7,30.13,SW,236,5.0,9.0,75,0.00,,---,0.00,VWS V14.00,2013-01-04 23:46:00,
2013-01-04 18:48:00,29.6,22.7,30.13,SW,232,0.0,9.0,75,0.00,,---,0.00,VWS V14.00,2013-01-04 23:48:00,
2013-01-04 18:50:00,29.6,22.7,30.13,SW,233,3.0,9.0,75,0.00,,---,0.00,VWS V14.00,2013-01-04 23:50:00,
2013-01-04 18:51:00,29.6,22.7,30.13,SW,233,1.0,9.0,75,0.00,,---,0.00,VWS V14.00,2013-01-04 23:51:00,
2013-01-04 18:53:00,29.6,22.7,30.13,SW,230,0.0,9.0,75,0.00,,---,0.00,VWS V14.00,2013-01-04 23:53:00,
2013-01-04 18:56:00,29.6,23.0,30.13,WSW,254,3.0,9.0,76,0.00,,---,0.00,VWS V14.00,2013-01-04 23:56:00,
2013-01-04 18:57:00,29.6,23.0,30.13,WSW,254,3.0,9.0,76,0.00,,---,0.00,VWS V14.00,2013-01-04 23:57:00,
2013-01-04 18:58:00,29.6,23.0,30.13,West,259,6.0,9.0,76,0.00,,---,0.00,VWS V14.00,2013-01-04 23:58:00,
2013-01-04 19:02:00,29.5,22.9,30.14,SW,225,0.0,10.0,76,0.00,,---,0.00,VWS V14.00,2013-01-05 00:02:00,
2013-01-04 19:03:00,29.5,22.9,30.14,WSW,246,2.0,10.0,76,0.00,,---,0.00,VWS V14.00,2013-01-05 00:03:00,
2013-01-04 19:04:00,29.5,22.9,30.14,West,275,4.0,10.0,76,0.00,,---,0.00,VWS V14.00,2013-01-05 00:04:00,
2013-01-04 19:05:00,29.5,22.9,30.14,WSW,252,2.0,10.0,76,0.00,,---,0.00,VWS V14.00,2013-01-05 00:05:00,
2013-01-04 19:07:00,29.5,22.9,30.14,WSW,245,2.0,10.0,76,0.00,,---,0.00,VWS V14.00,2013-01-05 00:07:00,
2013-01-04 19:09:00,29.5,22.9,30.14,West,259,3.0,10.0,76,0.00,,---,0.00,VWS V14.00,2013-01-05 00:09:00,
2013-01-04 19:11:00,29.5,22.9,30.14,West,270,5.0,10.0,76,0.00,,---,0.00,VWS V14.00,2013-01-05 00:11:00,
2013-01-04 19:12:00,29.5,22.9,30.14,WNW,288,5.0,10.0,76,0.00,,---,0.00,VWS V14.00,2013-01-05 00:12:00,
2013-01-04 19:13:00,29.5,22.9,30.14,WSW,256,4.0,10.0,76,0.00,,---,0.00,VWS V14.00,2013-01-05 00:13:00,
2013-01-04 19:16:00,29.5,23.2,30.14,WNW,292,8.0,17.0,77,0.00,,---,0.00,VWS V14.00,2013-01-05 00:16:00,
2013-01-04 19:17:00,29.4,23.1,30.14,WSW,243,6.0,17.0,77,0.00,,---,0.00,VWS V14.00,2013-01-05 00:17:00,
2013-01-04 19:19:00,29.4,23.1,30.14,West,260,3.0,17.0,77,0.00,,---,0.00,VWS V14.00,2013-01-05 00:19:00,
2013-01-04 19:20:00,29.4,23.1,30.14,West,280,6.0,17.0,77,0.00,,---,0.00,VWS V14.00,2013-01-05 00:20:00,
2013-01-04 19:21:00,29.4,23.1,30.14,West,259,5.0,17.0,77,0.00,,---,0.00,VWS V14.00,2013-01-05 00:21:00,
2013-01-04 19:24:00,29.4,23.1,30.14,WSW,248,0.0,17.0,77,0.00,,---,0.00,VWS V14.00,2013-01-05 00:24:00,
2013-01-04 19:25:00,29.4,23.1,30.14,West,274,1.0,17.0,77,0.00,,---,0.00,VWS V14.00,2013-01-05 00:25:00,
2013-01-04 19:28:00,29.3,23.0,30.14,West,273,6.0,7.0,77,0.00,,---,0.00,VWS V14.00,2013-01-05 00:28:00,
2013-01-04 19:30:00,29.3,23.3,30.14,WSW,252,2.0,10.0,78,0.00,,---,0.00,VWS V14.00,2013-01-05 00:30:00,
2013-01-04 19:31:00,29.3,23.3,30.15,West,272,6.0,12.0,78,0.00,,---,0.00,VWS V14.00,2013-01-05 00:31:00,
2013-01-04 19:33:00,29.3,23.3,30.15,West,259,2.0,12.0,78,0.00,,---,0.00,VWS V14.00,2013-01-05 00:33:00,
2013-01-04 19:35:00,29.3,23.3,30.15,West,260,2.0,12.0,78,0.00,,---,0.00,VWS V14.00,2013-01-05 00:35:00,
2013-01-04 19:36:00,29.3,23.3,30.15,WSW,250,2.0,12.0,78,0.00,,---,0.00,VWS V14.00,2013-01-05 00:36:00,
2013-01-04 19:37:00,29.3,23.3,30.15,WSW,250,4.0,12.0,78,0.00,,---,0.00,VWS V14.00,2013-01-05 00:37:00,
2013-01-04 19:38:00,29.3,23.3,30.15,West,278,9.0,12.0,78,0.00,,---,0.00,VWS V14.00,2013-01-05 00:38:00,
2013-01-04 19:41:00,29.3,23.3,30.15,SW,232,3.0,13.0,78,0.00,,---,0.00,VWS V14.00,2013-01-05 00:41:00,
2013-01-04 19:42:00,29.3,23.3,30.15,WNW,284,3.0,13.0,78,0.00,,---,0.00,VWS V14.00,2013-01-05 00:42:00,
2013-01-04 19:44:00,29.2,23.2,30.15,WSW,245,4.0,13.0,78,0.00,,---,0.00,VWS V14.00,2013-01-05 00:44:00,
2013-01-04 19:45:00,29.2,23.2,30.15,WSW,241,0.0,13.0,78,0.00,,---,0.00,VWS V14.00,2013-01-05 00:45:00,
2013-01-04 19:48:00,29.2,23.2,30.15,WSW,240,5.0,13.0,78,0.00,,---,0.00,VWS V14.00,2013-01-05 00:48:00,
2013-01-04 19:50:00,29.2,23.5,30.15,WSW,257,7.0,13.0,79,0.00,,---,0.00,VWS V14.00,2013-01-05 00:50:00,
2013-01-04 19:51:00,29.2,23.5,30.15,WSW,254,5.0,13.0,79,0.00,,---,0.00,VWS V14.00,2013-01-05 00:51:00,
2013-01-04 19:54:00,29.1,23.4,30.15,WSW,242,4.0,13.0,79,0.00,,---,0.00,VWS V14.00,2013-01-05 00:54:00,
2013-01-04 19:55:00,29.1,23.4,30.15,WSW,256,6.0,13.0,79,0.00,,---,0.00,VWS V14.00,2013-01-05 00:55:00,
2013-01-04 19:57:00,29.2,23.5,30.15,WSW,242,1.0,13.0,79,0.00,,---,0.00,VWS V14.00,2013-01-05 00:57:00,
2013-01-04 19:58:00,29.1,23.4,30.15,WSW,242,4.0,13.0,79,0.00,,---,0.00,VWS V14.00,2013-01-05 00:58:00,
2013-01-04 19:59:00,29.1,23.4,30.15,WSW,257,9.0,9.0,79,0.00,,---,0.00,VWS V14.00,2013-01-05 00:59:00,
2013-01-04 20:02:00,29.1,23.4,30.15,WSW,244,4.0,9.0,79,0.00,,---,0.00,VWS V14.00,2013-01-05 01:02:00,
2013-01-04 20:05:00,29.1,23.4,30.15,West,275,5.0,10.0,79,0.00,,---,0.00,VWS V14.00,2013-01-05 01:05:00,
2013-01-04 20:06:00,29.1,23.4,30.15,WSW,248,7.0,10.0,79,0.00,,---,0.00,VWS V14.00,2013-01-05 01:06:00,
2013-01-04 20:07:00,29.1,23.4,30.15,West,271,4.0,10.0,79,0.00,,---,0.00,VWS V14.00,2013-01-05 01:07:00,
2013-01-04 20:12:00,29.1,23.4,30.15,West,277,9.0,11.0,79,0.00,,---,0.00,VWS V14.00,2013-01-05 01:12:00,
2013-01-04 20:13:00,29.1,23.4,30.16,West,275,2.0,11.0,79,0.00,,---,0.00,VWS V14.00,2013-01-05 01:13:00,
2013-01-04 20:14:00,29.1,23.4,30.15,SW,234,6.0,11.0,79,0.00,,---,0.00,VWS V14.00,2013-01-05 01:14:00,
2013-01-04 20:17:00,29.1,23.7,30.15,West,268,4.0,13.0,80,0.00,,---,0.00,VWS V14.00,2013-01-05 01:17:00,
2013-01-04 20:19:00,29.0,23.6,30.15,West,268,1.0,13.0,80,0.00,,---,0.00,VWS V14.00,2013-01-05 01:19:00,
2013-01-04 20:20:00,29.0,23.6,30.15,West,267,15.0,16.0,80,0.00,,---,0.00,VWS V14.00,2013-01-05 01:20:00,
2013-01-04 20:22:00,29.0,23.6,30.15,WSW,242,3.0,16.0,80,0.00,,---,0.00,VWS V14.00,2013-01-05 01:22:00,
2013-01-04 20:24:00,29.0,23.6,30.15,WSW,247,1.0,16.0,80,0.00,,---,0.00,VWS V14.00,2013-01-05 01:24:00,
2013-01-04 20:26:00,29.0,23.6,30.15,West,263,6.0,16.0,80,0.00,,---,0.00,VWS V14.00,2013-01-05 01:26:00,
2013-01-04 20:27:00,29.0,23.6,30.15,West,265,7.0,16.0,80,0.00,,---,0.00,VWS V14.00,2013-01-05 01:27:00,
2013-01-04 20:30:00,29.0,23.6,30.15,WSW,248,3.0,9.0,80,0.00,,---,0.00,VWS V14.00,2013-01-05 01:30:00,
2013-01-04 20:31:00,28.9,23.5,30.15,WSW,240,9.0,9.0,80,0.00,,---,0.00,VWS V14.00,2013-01-05 01:31:00,
2013-01-04 20:32:00,28.9,23.5,30.15,West,261,5.0,11.0,80,0.00,,---,0.00,VWS V14.00,2013-01-05 01:32:00,
2013-01-04 20:36:00,28.9,23.5,30.15,WSW,252,3.0,12.0,80,0.00,,---,0.00,VWS V14.00,2013-01-05 01:36:00,
2013-01-04 20:37:00,28.9,23.5,30.15,WSW,240,2.0,12.0,80,0.00,,---,0.00,VWS V14.00,2013-01-05 01:37:00,
2013-01-04 20:41:00,28.9,23.5,30.16,West,259,4.0,12.0,80,0.00,,---,0.00,VWS V14.00,2013-01-05 01:41:00,
2013-01-04 20:42:00,28.9,23.8,30.16,West,271,7.0,12.0,81,0.00,,---,0.00,VWS V14.00,2013-01-05 01:42:00,
2013-01-04 20:43:00,28.9,23.8,30.16,West,279,5.0,12.0,81,0.00,,---,0.00,VWS V14.00,2013-01-05 01:43:00,
2013-01-04 20:44:00,28.9,23.8,30.16,WNW,290,7.0,12.0,81,0.00,,---,0.00,VWS V14.00,2013-01-05 01:44:00,
2013-01-04 20:47:00,28.9,23.8,30.16,West,278,4.0,12.0,81,0.00,,---,0.00,VWS V14.00,2013-01-05 01:47:00,
2013-01-04 20:48:00,28.9,23.8,30.16,WSW,242,2.0,12.0,81,0.00,,---,0.00,VWS V14.00,2013-01-05 01:48:00,
2013-01-04 20:49:00,28.9,23.8,30.16,WSW,250,4.0,12.0,81,0.00,,---,0.00,VWS V14.00,2013-01-05 01:49:00,
2013-01-04 20:50:00,28.9,23.8,30.16,West,264,4.0,12.0,81,0.00,,---,0.00,VWS V14.00,2013-01-05 01:50:00,
2013-01-04 20:53:00,28.9,23.8,30.16,West,279,3.0,12.0,81,0.00,,---,0.00,VWS V14.00,2013-01-05 01:53:00,
2013-01-04 20:54:00,28.9,23.8,30.16,WSW,245,8.0,12.0,81,0.00,,---,0.00,VWS V14.00,2013-01-05 01:54:00,
2013-01-04 20:55:00,28.9,23.8,30.16,West,261,2.0,12.0,81,0.00,,---,0.00,VWS V14.00,2013-01-05 01:55:00,
2013-01-04 20:56:00,28.9,23.8,30.16,WSW,249,4.0,12.0,81,0.00,,---,0.00,VWS V14.00,2013-01-05 01:56:00,
2013-01-04 20:58:00,28.9,23.8,30.16,West,269,8.0,12.0,81,0.00,,---,0.00,VWS V14.00,2013-01-05 01:58:00,
2013-01-04 20:59:00,28.9,23.8,30.15,West,272,5.0,7.0,81,0.00,,---,0.00,VWS V14.00,2013-01-05 01:59:00,
2013-01-04 21:01:00,28.9,23.8,30.15,West,262,4.0,10.0,81,0.00,,---,0.00,VWS V14.00,2013-01-05 02:01:00,
2013-01-04 21:04:00,28.9,23.8,30.15,SW,235,2.0,10.0,81,0.00,,---,0.00,VWS V14.00,2013-01-05 02:04:00,
2013-01-04 21:05:00,28.9,23.8,30.15,West,279,1.0,11.0,81,0.00,,---,0.00,VWS V14.00,2013-01-05 02:05:00,
2013-01-04 21:06:00,28.9,23.8,30.15,West,270,3.0,11.0,81,0.00,,---,0.00,VWS V14.00,2013-01-05 02:06:00,
2013-01-04 21:07:00,28.9,23.8,30.16,West,275,5.0,11.0,81,0.00,,---,0.00,VWS V14.00,2013-01-05 02:07:00,
2013-01-04 21:10:00,28.9,23.8,30.16,West,270,3.0,11.0,81,0.00,,---,0.00,VWS V14.00,2013-01-05 02:10:00,
2013-01-04 21:11:00,28.8,23.7,30.16,WSW,247,6.0,14.0,81,0.00,,---,0.00,VWS V14.00,2013-01-05 02:11:00,
2013-01-04 21:15:00,28.9,23.8,30.16,WSW,252,9.0,14.0,81,0.00,,---,0.00,VWS V14.00,2013-01-05 02:15:00,
2013-01-04 21:16:00,28.9,23.8,30.16,WSW,257,6.0,14.0,81,0.00,,---,0.00,VWS V14.00,2013-01-05 02:16:00,
2013-01-04 21:17:00,28.9,23.8,30.16,West,272,6.0,14.0,81,0.00,,---,0.00,VWS V14.00,2013-01-05 02:17:00,
2013-01-04 21:20:00,28.9,23.8,30.16,West,277,5.0,14.0,81,0.00,,---,0.00,VWS V14.00,2013-01-05 02:20:00,
2013-01-04 21:21:00,28.9,23.8,30.16,WSW,253,4.0,14.0,81,0.00,,---,0.00,VWS V14.00,2013-01-05 02:21:00,
2013-01-04 21:22:00,28.9,23.8,30.16,West,269,8.0,14.0,81,0.00,,---,0.00,VWS V14.00,2013-01-05 02:22:00,
2013-01-04 21:26:00,28.9,23.8,30.16,West,264,4.0,14.0,81,0.00,,---,0.00,VWS V14.00,2013-01-05 02:26:00,
2013-01-04 21:27:00,28.9,23.8,30.16,West,261,2.0,14.0,81,0.00,,---,0.00,VWS V14.00,2013-01-05 02:27:00,
2013-01-04 21:29:00,28.9,23.8,30.16,West,277,10.0,11.0,81,0.00,,---,0.00,VWS V14.00,2013-01-05 02:29:00,
2013-01-04 21:32:00,28.9,24.1,30.16,West,267,3.0,12.0,82,0.00,,---,0.00,VWS V14.00,2013-01-05 02:32:00,
2013-01-04 21:34:00,28.9,24.1,30.16,West,276,3.0,12.0,82,0.00,,---,0.00,VWS V14.00,2013-01-05 02:34:00,
2013-01-04 21:37:00,28.8,24.0,30.16,West,261,2.0,12.0,82,0.00,,---,0.00,VWS V14.00,2013-01-05 02:37:00,
2013-01-04 21:38:00,28.8,24.0,30.17,West,274,2.0,12.0,82,0.00,,---,0.00,VWS V14.00,2013-01-05 02:38:00,
2013-01-04 21:39:00,28.8,24.0,30.17,West,280,7.0,12.0,82,0.00,,---,0.00,VWS V14.00,2013-01-05 02:39:00,
2013-01-04 21:43:00,28.8,24.0,30.17,WSW,256,4.0,12.0,82,0.00,,---,0.00,VWS V14.00,2013-01-05 02:43:00,
2013-01-04 21:44:00,28.8,24.0,30.17,WSW,256,1.0,12.0,82,0.00,,---,0.00,VWS V14.00,2013-01-05 02:44:00,
2013-01-04 21:45:00,28.8,24.0,30.17,West,272,6.0,12.0,82,0.00,,---,0.00,VWS V14.00,2013-01-05 02:45:00,
2013-01-04 21:50:00,28.8,24.0,30.17,WSW,250,3.0,12.0,82,0.00,,---,0.00,VWS V14.00,2013-01-05 02:50:00,
2013-01-04 21:51:00,28.8,24.0,30.17,WSW,252,0.0,12.0,82,0.00,,---,0.00,VWS V14.00,2013-01-05 02:51:00,
2013-01-04 21:54:00,28.8,24.0,30.17,WSW,252,4.0,12.0,82,0.00,,---,0.00,VWS V14.00,2013-01-05 02:54:00,
2013-01-04 21:55:00,28.7,23.9,30.17,West,263,5.0,12.0,82,0.00,,---,0.00,VWS V14.00,2013-01-05 02:55:00,
2013-01-04 21:58:00,28.7,23.9,30.17,WSW,240,3.0,12.0,82,0.00,,---,0.00,VWS V14.00,2013-01-05 02:58:00,
2013-01-04 22:00:00,28.7,23.9,30.17,West,274,3.0,10.0,82,0.00,,---,0.00,VWS V14.00,2013-01-05 03:00:00,
2013-01-04 22:02:00,28.7,23.9,30.17,West,266,4.0,13.0,82,0.00,,---,0.00,VWS V14.00,2013-01-05 03:02:00,
2013-01-04 22:03:00,28.7,23.9,30.17,West,269,2.0,13.0,82,0.00,,---,0.00,VWS V14.00,2013-01-05 03:03:00,
2013-01-04 22:06:00,28.6,23.8,30.17,West,272,6.0,13.0,82,0.00,,---,0.00,VWS V14.00,2013-01-05 03:06:00,
2013-01-04 22:08:00,28.6,23.8,30.17,West,263,5.0,13.0,82,0.00,,---,0.00,VWS V14.00,2013-01-05 03:08:00,
2013-01-04 22:09:00,28.6,23.8,30.17,WSW,256,1.0,13.0,82,0.00,,---,0.00,VWS V14.00,2013-01-05 03:09:00,
2013-01-04 22:12:00,28.6,23.8,30.17,WSW,250,3.0,13.0,82,0.00,,---,0.00,VWS V14.00,2013-01-05 03:12:00,
2013-01-04 22:13:00,28.6,23.8,30.17,WSW,244,3.0,13.0,82,0.00,,---,0.00,VWS V14.00,2013-01-05 03:13:00,
2013-01-04 22:14:00,28.5,23.7,30.17,West,273,6.0,13.0,82,0.00,,---,0.00,VWS V14.00,2013-01-05 03:14:00,
2013-01-04 22:17:00,28.5,23.7,30.17,West,271,5.0,13.0,82,0.00,,---,0.00,VWS V14.00,2013-01-05 03:17:00,
2013-01-04 22:18:00,28.5,23.7,30.17,West,269,4.0,13.0,82,0.00,,---,0.00,VWS V14.00,2013-01-05 03:18:00,
2013-01-04 22:19:00,28.5,23.7,30.17,WNW,283,7.0,13.0,82,0.00,,---,0.00,VWS V14.00,2013-01-05 03:19:00,
2013-01-04 22:22:00,28.5,23.7,30.17,West,264,5.0,13.0,82,0.00,,---,0.00,VWS V14.00,2013-01-05 03:22:00,
2013-01-04 22:23:00,28.5,23.7,30.17,West,271,6.0,13.0,82,0.00,,---,0.00,VWS V14.00,2013-01-05 03:23:00,
2013-01-04 22:24:00,28.5,23.7,30.17,West,271,4.0,13.0,82,0.00,,---,0.00,VWS V14.00,2013-01-05 03:24:00,
2013-01-04 22:27:00,28.5,23.7,30.17,West,261,4.0,13.0,82,0.00,,---,0.00,VWS V14.00,2013-01-05 03:27:00,
2013-01-04 22:28:00,28.5,24.0,30.17,West,271,2.0,13.0,83,0.00,,---,0.00,VWS V14.00,2013-01-05 03:28:00,
2013-01-04 22:29:00,28.5,24.0,30.17,WSW,251,6.0,7.0,83,0.00,,---,0.00,VWS V14.00,2013-01-05 03:29:00,
2013-01-04 22:34:00,28.5,24.0,30.17,West,277,4.0,9.0,83,0.00,,---,0.00,VWS V14.00,2013-01-05 03:34:00,
2013-01-04 22:35:00,28.5,24.0,30.17,West,277,5.0,9.0,83,0.00,,---,0.00,VWS V14.00,2013-01-05 03:35:00,
2013-01-04 22:36:00,28.4,23.9,30.17,West,264,6.0,10.0,83,0.00,,---,0.00,VWS V14.00,2013-01-05 03:36:00,
2013-01-04 22:40:00,28.5,24.0,30.17,West,264,3.0,10.0,83,0.00,,---,0.00,VWS V14.00,2013-01-05 03:40:00,
2013-01-04 22:41:00,28.5,24.0,30.17,West,266,5.0,10.0,83,0.00,,---,0.00,VWS V14.00,2013-01-05 03:41:00,
2013-01-04 22:42:00,28.5,24.0,30.17,West,263,4.0,10.0,83,0.00,,---,0.00,VWS V14.00,2013-01-05 03:42:00,
2013-01-04 22:46:00,28.4,23.9,30.17,West,279,4.0,10.0,83,0.00,,---,0.00,VWS V14.00,2013-01-05 03:46:00,
2013-01-04 22:47:00,28.4,23.9,30.17,West,264,2.0,10.0,83,0.00,,---,0.00,VWS V14.00,2013-01-05 03:47:00,
2013-01-04 22:48:00,28.4,23.9,30.17,West,273,3.0,10.0,83,0.00,,---,0.00,VWS V14.00,2013-01-05 03:48:00,
2013-01-04 22:51:00,28.4,23.9,30.17,WSW,252,3.0,10.0,83,0.00,,---,0.00,VWS V14.00,2013-01-05 03:51:00,
2013-01-04 22:52:00,28.5,24.0,30.17,West,269,2.0,10.0,83,0.00,,---,0.00,VWS V14.00,2013-01-05 03:52:00,
2013-01-04 22:54:00,28.4,23.9,30.17,WSW,253,0.0,10.0,83,0.00,,---,0.00,VWS V14.00,2013-01-05 03:54:00,
2013-01-04 22:57:00,28.5,24.0,30.17,WSW,246,3.0,10.0,83,0.00,,---,0.00,VWS V14.00,2013-01-05 03:57:00,
2013-01-04 22:58:00,28.5,24.0,30.17,WSW,246,4.0,10.0,83,0.00,,---,0.00,VWS V14.00,2013-01-05 03:58:00,
2013-01-04 22:59:00,28.5,24.0,30.18,West,261,5.0,6.0,83,0.00,,---,0.00,VWS V14.00,2013-01-05 03:59:00,
2013-01-04 23:02:00,28.5,24.0,30.17,WSW,247,0.0,6.0,83,0.00,,---,0.00,VWS V14.00,2013-01-05 04:02:00,
2013-01-04 23:04:00,28.4,23.9,30.17,WSW,242,2.0,6.0,83,0.00,,---,0.00,VWS V14.00,2013-01-05 04:04:00,
2013-01-04 23:07:00,28.4,23.9,30.17,WSW,248,0.0,6.0,83,0.00,,---,0.00,VWS V14.00,2013-01-05 04:07:00,
2013-01-04 23:08:00,28.4,23.9,30.17,WSW,246,0.0,6.0,83,0.00,,---,0.00,VWS V14.00,2013-01-05 04:08:00,
2013-01-04 23:09:00,28.4,23.9,30.17,WSW,237,7.0,7.0,83,0.00,,---,0.00,VWS V14.00,2013-01-05 04:09:00,
2013-01-04 23:11:00,28.4,23.9,30.18,WSW,240,0.0,7.0,83,0.00,,---,0.00,VWS V14.00,2013-01-05 04:11:00,
2013-01-04 23:13:00,28.4,23.9,30.17,SW,233,0.0,7.0,83,0.00,,---,0.00,VWS V14.00,2013-01-05 04:13:00,
2013-01-04 23:14:00,28.4,23.9,30.18,SW,234,0.0,7.0,83,0.00,,---,0.00,VWS V14.00,2013-01-05 04:14:00,
2013-01-04 23:16:00,28.4,23.9,30.17,WSW,248,0.0,7.0,83,0.00,,---,0.00,VWS V14.00,2013-01-05 04:16:00,
2013-01-04 23:18:00,28.4,23.9,30.17,WSW,246,1.0,7.0,83,0.00,,---,0.00,VWS V14.00,2013-01-05 04:18:00,
2013-01-04 23:19:00,28.4,23.9,30.17,WSW,246,0.0,7.0,83,0.00,,---,0.00,VWS V14.00,2013-01-05 04:19:00,
2013-01-04 23:20:00,28.4,23.9,30.17,SW,232,1.0,7.0,83,0.00,,---,0.00,VWS V14.00,2013-01-05 04:20:00,
2013-01-04 23:21:00,28.4,23.9,30.18,SW,223,0.0,7.0,83,0.00,,---,0.00,VWS V14.00,2013-01-05 04:21:00,
2013-01-04 23:24:00,28.3,23.8,30.18,SW,232,2.0,7.0,83,0.00,,---,0.00,VWS V14.00,2013-01-05 04:24:00,
2013-01-04 23:25:00,28.4,23.9,30.18,SW,232,3.0,7.0,83,0.00,,---,0.00,VWS V14.00,2013-01-05 04:25:00,
2013-01-04 23:27:00,28.3,23.8,30.18,SW,232,0.0,7.0,83,0.00,,---,0.00,VWS V14.00,2013-01-05 04:27:00,
2013-01-04 23:29:00,28.3,23.8,30.18,WSW,241,2.0,6.0,83,0.00,,---,0.00,VWS V14.00,2013-01-05 04:29:00,
2013-01-04 23:31:00,28.3,24.1,30.18,WSW,241,0.0,6.0,84,0.00,,---,0.00,VWS V14.00,2013-01-05 04:31:00,
2013-01-04 23:33:00,28.3,24.1,30.18,SW,236,0.0,6.0,84,0.00,,---,0.00,VWS V14.00,2013-01-05 04:33:00,
2013-01-04 23:34:00,28.3,24.1,30.18,WSW,253,3.0,6.0,84,0.00,,---,0.00,VWS V14.00,2013-01-05 04:34:00,
2013-01-04 23:37:00,28.2,24.0,30.18,SW,227,1.0,6.0,84,0.00,,---,0.00,VWS V14.00,2013-01-05 04:37:00,
2013-01-04 23:39:00,28.3,24.1,30.18,SW,229,0.0,6.0,84,0.00,,---,0.00,VWS V14.00,2013-01-05 04:39:00,
2013-01-04 23:40:00,28.2,24.0,30.18,SW,229,0.0,6.0,84,0.00,,---,0.00,VWS V14.00,2013-01-05 04:40:00,
2013-01-04 23:42:00,28.2,24.0,30.18,SW,229,0.0,6.0,84,0.00,,---,0.00,VWS V14.00,2013-01-05 04:42:00,
2013-01-04 23:44:00,28.2,24.0,30.18,WSW,238,3.0,6.0,84,0.00,,---,0.00,VWS V14.00,2013-01-05 04:44:00,
2013-01-04 23:46:00,28.1,23.9,30.18,SW,223,1.0,6.0,84,0.00,,---,0.00,VWS V14.00,2013-01-05 04:46:00,
2013-01-04 23:47:00,28.1,23.9,30.18,SW,223,0.0,6.0,84,0.00,,---,0.00,VWS V14.00,2013-01-05 04:47:00,
2013-01-04 23:49:00,28.1,23.9,30.19,SW,217,0.0,6.0,84,0.00,,---,0.00,VWS V14.00,2013-01-05 04:49:00,
2013-01-04 23:52:00,28.1,23.9,30.19,SW,225,3.0,6.0,84,0.00,,---,0.00,VWS V14.00,2013-01-05 04:52:00,
2013-01-04 23:54:00,28.1,23.9,30.19,SW,230,0.0,6.0,84,0.00,,---,0.00,VWS V14.00,2013-01-05 04:54:00,
2013-01-04 23:55:00,28.1,23.9,30.19,SW,229,0.0,6.0,84,0.00,,---,0.00,VWS V14.00,2013-01-05 04:55:00,
2013-01-04 23:58:00,28.0,23.8,30.19,SW,221,3.0,6.0,84,0.00,,---,0.00,VWS V14.00,2013-01-05 04:58:00,